                ,  0.301,  0.397,  0.494,  0.590,  0.687,  0.784,  0.880,  0.977,  1.073,  1.170,  1.267,  1.363,  1.460,  1.556,  1.653,  1.749,  1.846,  1.943,  2.039,  2.136,  2.232,  2.329,  2.426,  2.522,  2.619,  2.715,  2.812,  2.909,  3.005,  3.102,  3.198,  3.295,  3.392,  3.488,  3.585,  3.681,  3.778,  3.875,  3.971,  4.068,  4.164,  4.261,  4.357,  4.454,  4.551,  4.647,  4.744,  4.840,  4.937,  5.034,  5.130,  5.227,  5.323,  5.420,  5.517,  5.613,  5.710,  5.806,  5.903,  6.000,  6.096,  6.193,  6.289,  6.386,  6.483,  6.579,  6.676,  6.772,  6.869,  6.965,  7.062,  7.159,  7.255,  7.352,  7.448,  7.545,  7.642,  7.738,  7.835,  7.931
2013/04/27 00:00,  999.0,    1.0,    2.5,    3.5,    2.7,    4.3,    3.3,    1.9,    4.2,    4.3,    5.8,    5.4,    6.8,    6.4,    7.6,    8.7,    9.0,  999.0,  999.0,   11.4,   14.1,   19.2,  999.0,  999.0,  999.0,  999.0,  999.0,  999.0,  999.0,  999.0,  999.0,  999.0,  999.0,  999.0,  999.0,  999.0,  999.0,  999.0,  999.0,  999.0,  999.0,  999.0,  999.0,  999.0,  999.0,   -0.3,    0.1,  999.0,   -0.3,  999.0,  999.0,  999.0,  999.0,  999.0,  999.0,  999.0,   -0.4,  999.0,  999.0,  999.0,  999.0,  999.0,  999.0,  999.0,  999.0,  999.0,  999.0,  999.0,  999.0,  999.0,  999.0,  999.0,  999.0,  999.0,  999.0,  999.0,  999.0,  999.0,  999.0,  999.0
2013/04/27 00:10,  999.0,    0.1,    1.9,    2.3,    1.1,    3.1,    1.5,    2.9,    6.3,  999.0,  999.0,    9.7,    7.4,    9.9,  999.0,    7.8,    7.5,  999.0,    8.8,    7.3,    6.0,  999.0,  999.0,  999.0,  999.0,    2.8,    0.0,    0.6,  999.0,   -0.1,    0.4,    0.0,  999.0,  999.0,  999.0,  999.0,  999.0,  999.0,  999.0,  999.0,  999.0,  999.0,   -0.1,  999.0,  999.0,   -0.2,  999.0,  999.0,    0.2,  999.0,  999.0,  999.0,  999.0,  999.0,  999.0,  999.0,    0.0,  999.0,  999.0,    0.1,  999.0,  999.0,  999.0,  999.0,  999.0,    0.4,  999.0,  999.0,  999.0,  999.0,  999.0,  999.0,  999.0,  999.0,  999.0,  999.0,  999.0,  999.0,  999.0,  999.0
2013/04/27 00:20,  999.0,    0.3,    0.3,    0.9,    0.9,    3.1,    3.3,    3.0,    3.3,    4.7,    3.6,    4.8,    5.5,    7.3,    7.2,    6.8,    4.9,    8.4,    7.0,    7.7,   10.1,  999.0,  999.0,  999.0,    5.0,  999.0,    0.3,   -0.0,    0.1,   -0.1,    0.0,   -0.1,   -0.0,    0.1,    0.8,  999.0,  999.0,   -0.1,  999.0,    0.1,   -0.2,  999.0,   -0.1,   -0.2,    0.0,   -0.2,   -0.2,    0.2,   -0.1,   -0.1,  999.0,   -0.4,   -0.2,   -0.1,   -0.1,   -0.0,    0.2,   -0.2,   -0.2,   -0.4,    0.2,    0.3,    0.0,   -0.2,    0.0,    0.1,   -0.1,  999.0,  999.0,  999.0,  999.0,  999.0,  999.0,  999.0,  999.0,  999.0,  999.0,  999.0,  999.0,  999.0
2013/04/27 00:30,  999.0,   -0.3,    0.0,    0.9,   -0.5,    0.1,    0.0,   -0.1,   -0.3,   -0.4,   -0.5,    0.5,    0.7,    2.1,    1.5,    0.8,    0.4,    0.3,    0.2,    0.6,   -0.5,  999.0,  999.0,  999.0,    2.8,    1.9,    1.5,   -0.7,    0.3,    0.1,    0.4,    0.1,   -0.2,   -0.2,   -0.0,  999.0,    0.1,   -0.1,    0.0,    0.1,   -0.3,   -0.1,   -0.4,   -0.2,    0.1,  999.0,   -0.2,  999.0,  999.0,  999.0,    0.0,    0.4,   -0.0,   -0.0,    0.1,   -0.2,   -0.1,    0.2,   -0.1,   -0.3,   -0.3,   -0.2,   -0.2,   -0.1,    0.1,   -0.1,  999.0,  999.0,  999.0,  999.0,  999.0,  999.0,  999.0,  999.0,  999.0,  999.0,  999.0,  999.0,  999.0,  999.0
2013/04/27 00:40,  999.0,    0.0,   -0.4,   -0.4,   -0.1,   -0.2,   -0.3,   -0.2,   -0.2,   -0.4,    0.2,    0.4,    0.4,    0.7,   -0.1,    0.1,    0.2,    0.2,   -0.0,    0.1,   -0.0,    0.0,   -0.7,  999.0,  999.0,  999.0,   -1.9,   -1.9,   -1.1,   -1.0,    0.4,  999.0,  999.0,   -0.2,    0.4,   -0.2,   -0.1,  999.0,  999.0,   -0.0,   -0.1,   -0.2,   -0.2,   -0.1,   -0.1,   -0.2,    0.2,    0.0,    0.4,  999.0,    0.2,    0.3,    0.2,   -0.2,    0.2,    0.1,   -0.1,   -0.0,    0.0,   -0.1,   -0.1,    0.1,   -0.2,   -0.2,    0.2,   -0.2,    0.4,    0.2,   -0.2,  999.0,  999.0,  999.0,  999.0,  999.0,  999.0,  999.0,  999.0,  999.0,  999.0,  999.0
2013/04/27 00:50,  999.0,   -0.3,   -0.3,    0.2,    0.2,    0.0,   -0.2,   -0.3,    0.1,    0.8,    0.9,    0.7,    1.3,    0.6,    0.9,    1.1,    1.0,    0.8,    0.9,    0.8,    0.8,    0.9,    1.0,    0.8,    0.7,    1.3,    1.3,    1.4,    0.3,    0.1,    0.3,    0.4,    0.2,    0.1,    0.1,   -0.1,   -0.1,  999.0,   -0.1,    0.2,   -0.0,   -0.3,   -0.0,    0.1,   -0.3,   -0.1,    0.1,    0.2,   -0.0,    0.3,   -0.1,    0.1,   -0.0,   -0.0,    0.2,    0.1,    0.0,    0.2,   -0.3,   -0.1,   -0.0,    0.0,   -0.2,   -0.1,   -0.0,    0.1,    0.1,   -0.1,   -0.1,  999.0,  999.0,  999.0,  999.0,  999.0,  999.0,  999.0,  999.0,  999.0,  999.0,  999.0
2013/04/27 01:00,  999.0,    0.1,    0.1,    0.3,    0.5,    0.1,    0.2,    0.2,    0.2,    1.1,    0.8,    2.4,    2.8,    2.1,    1.3,    1.0,    1.3,    0.2,    0.1,    0.7,    0.9,  999.0,    1.6,    1.2,    0.7,    0.1,    0.2,    0.6,   -0.0,    0.9,    0.2,   -0.1,   -0.1,   -0.1,    0.1,   -0.1,    0.1,    0.1,  999.0,    0.0,  999.0,   -0.3,   -0.3,    0.2,    0.1,    0.3,    0.2,   -0.0,   -0.1,   -0.1,   -0.0,    0.0,    0.1,    0.0,   -0.0,   -0.1,   -0.5,    0.0,   -0.1,   -0.4,   -0.1,    0.1,   -0.1,   -0.0,    0.2,    0.1,    0.2,    0.2,   -0.0,  999.0,  999.0,  999.0,  999.0,  999.0,  999.0,  999.0,  999.0,  999.0,  999.0,  999.0
2013/04/27 01:10,  999.0,    0.3,    0.5,    0.1,    0.8,    0.7,    0.4,    0.2,   -0.2,   -0.5,  999.0,    6.0,    3.1,    1.6,    1.7,    3.5,    2.3,    1.8,    2.0,    2.8,  999.0,    2.2,    1.2,    0.5,    0.5,    0.2,    0.2,    0.2,   -0.2,    0.3,    0.6,    0.5,  999.0,    0.1,    0.2,  999.0,   -0.1,  999.0,    0.2,    0.3,   -0.2,   -0.1,   -0.1,   -0.1,    0.0,   -0.3,  999.0,   -0.1,    0.0,    0.0,   -0.1,    0.0,    0.1,    0.0,    0.0,    0.1,    0.0,    0.1,    0.1,   -0.0,    0.0,    0.1,    0.1,    0.0,    0.0,   -0.0,  999.0,  999.0,  999.0,  999.0,  999.0,  999.0,  999.0,  999.0,  999.0,  999.0,  999.0,  999.0,  999.0,  999.0
2013/04/27 01:20,  999.0,   -0.6,   -0.9,   -0.7,   -0.1,   -0.3,    0.6,    0.7,    2.2,    2.5,    6.6,    6.4,    6.5,  999.0,    6.6,    7.6,    6.1,    5.3,    4.9,  999.0,    2.6,    3.0,    2.2,    1.3,    0.3,  999.0,    0.3,    0.3,   -0.1,   -0.1,    0.7,    0.5,    0.9,  999.0,    0.4,   -0.0,  999.0,    0.0,    0.0,    0.0,   -0.0,   -0.2,   -0.1,   -0.1,   -0.1,   -0.1,    0.0,    0.1,   -0.2,   -0.1,    0.1,   -0.1,    0.2,    0.0,   -0.0,    0.1,    0.1,   -0.1,    0.1,   -0.1,    0.2,    0.1,    0.3,    0.0,    0.1,   -0.1,    0.2,    0.1,  999.0,  999.0,  999.0,  999.0,  999.0,  999.0,  999.0,  999.0,  999.0,  999.0,  999.0,  999.0
2013/04/27 01:30,  999.0,    0.1,   -0.1,    0.2,   -0.2,   -0.1,    0.6,    0.9,    2.1,    3.8,    3.9,    3.7,    5.0,    4.9,    5.7,    6.8,    6.4,    3.7,    4.0,    5.7,  999.0,    5.1,    1.4,    2.0,    1.2,    0.7,    0.7,    1.0,    0.7,    0.2,    0.1,    0.6,    0.5,    0.2,   -0.1,   -0.3,   -0.0,   -0.1,   -0.1,   -0.3,   -0.1,   -0.1,   -0.0,    0.1,    0.0,    0.2,   -0.1,    0.2,   -0.0,   -0.0,   -0.0,    0.1,    0.2,    0.0,    0.1,   -0.0,   -0.0,   -0.0,   -0.0,    0.0,   -0.0,    0.1,   -0.0,    0.1,    0.0,   -0.0,    0.3,  999.0,  999.0,  999.0,  999.0,  999.0,  999.0,  999.0,  999.0,  999.0,  999.0,  999.0,  999.0,  999.0
2013/04/27 01:40,  999.0,    0.1,   -0.2,    0.6,    0.7,    1.5,    1.0,    0.9,    1.0,    2.6,    3.9,  999.0,  999.0,    2.8,    2.0,    2.6,    4.5,    3.5,    1.9,    0.9,    1.7,    1.9,    1.1,    0.6,    0.5,    0.4,    0.5,    0.3,    0.1,    0.3,    0.4,    0.1,    0.1,    0.0,   -0.0,   -0.3,   -0.4,    0.2,    0.2,   -0.1,   -0.2,    0.0,    0.0,    0.1,    0.2,    0.2,    0.1,   -0.1,   -0.2,   -0.3,   -0.1,   -0.2,    0.1,    0.3,    0.1,    0.0,   -0.1,   -0.0,   -0.1,   -0.1,   -0.2,   -0.0,    0.1,    0.2,    0.2,   -0.5,   -0.1,  999.0,  999.0,  999.0,  999.0,  999.0,  999.0,  999.0,  999.0,  999.0,  999.0,  999.0,  999.0,  999.0
2013/04/27 01:50,  999.0,    0.2,    0.5,    0.6,    1.0,    1.3,    1.2,    3.0,    2.4,    2.4,    1.7,    2.7,    4.1,    4.2,    3.9,    4.4,    5.0,    3.0,    1.8,    2.3,    2.0,    0.8,    1.0,    0.3,    0.5,    0.1,    0.1,    0.1,    0.1,    0.1,   -0.0,  999.0,  999.0,   -0.1,   -0.3,    0.1,   -0.2,    0.2,    0.2,    0.2,   -0.1,   -0.3,    0.1,   -0.0,    0.1,    0.2,    0.1,   -0.0,   -0.0,   -0.1,   -0.0,   -0.2,    0.0,   -0.1,    0.0,    0.0,   -0.0,    0.1,   -0.1,    0.0,   -0.1,    0.2,   -0.1,   -0.0,    0.0,   -0.1,  999.0,  999.0,  999.0,  999.0,  999.0,  999.0,  999.0,  999.0,  999.0,  999.0,  999.0,  999.0,  999.0,  999.0
2013/04/27 02:00,  999.0,    0.1,    1.1,    1.3,    1.0,    0.7,    1.8,    2.2,    1.1,    0.9,    0.1,    1.2,    2.3,    2.6,    3.0,    4.3,    5.1,    5.0,    3.5,    2.0,    0.4,    0.2,   -0.1,    1.8,    1.4,    0.1,    1.0,    1.4,    1.2,    1.2,    0.9,    0.7,    1.7,   -0.0,   -0.1,    1.0,  999.0,  999.0,    0.6,    0.6,    0.1,   -0.0,   -0.2,   -0.2,    0.1,   -0.1,    0.1,    0.1,    0.0,   -0.0,   -0.3,    0.1,    0.0,    0.0,    0.0,    0.2,    0.1,   -0.0,    0.0,    0.0,    0.1,    0.0,   -0.1,   -0.2,   -0.2,  999.0,  999.0,  999.0,  999.0,  999.0,  999.0,  999.0,  999.0,  999.0,  999.0,  999.0,  999.0,  999.0,  999.0,  999.0
2013/04/27 02:10,  999.0,   -0.2,    0.4,    2.1,    1.5,    0.9,    0.2,    0.3,    0.4,    1.2,  999.0,   -0.3,    0.4,    0.8,    1.8,    4.0,    4.2,    6.3,  999.0,    2.3,    1.0,    0.8,   -0.1,   -0.0,   -0.2,    0.4,   -0.1,    0.1,    0.0,    0.1,    0.2,    0.3,  999.0,   -0.1,   -0.1,    0.4,    0.4,    0.0,    0.0,    0.0,   -0.1,   -0.2,    0.0,   -0.0,    0.0,   -0.0,   -0.1,    0.0,   -0.2,   -0.2,   -0.1,    0.1,   -0.1,   -0.1,   -0.2,    0.0,   -0.1,    0.2,    0.0,    0.1,    0.2,   -0.0,    0.0,   -0.0,    0.1,    0.0,   -0.0,    0.2,  999.0,  999.0,  999.0,  999.0,  999.0,  999.0,  999.0,  999.0,  999.0,  999.0,  999.0,  999.0
2013/04/27 02:20,  999.0,    0.1,   -0.1,    0.4,    0.7,    0.9,    0.6,    0.7,    1.5,    2.4,    6.5,    6.8,    8.5,    8.0,  999.0,    3.6,    3.2,    3.1,    1.7,    1.8,    0.8,    1.3,    0.4,    0.4,   -0.1,   -0.2,    0.1,   -0.1,    0.1,    0.1,    0.4,    0.6,    0.2,    0.2,    1.0,  999.0,    0.3,  999.0,    0.2,    0.2,   -0.2,    0.1,    0.0,    0.0,    0.1,    0.0,    0.2,    0.2,    0.2,   -0.3,   -0.0,   -0.5,    0.1,    0.1,   -0.0,    0.0,    0.1,    0.1,    0.2,    0.1,   -0.0,   -0.1,    0.4,    0.1,   -0.0,    0.1,    0.4,    0.1,  999.0,  999.0,  999.0,  999.0,  999.0,  999.0,  999.0,  999.0,  999.0,  999.0,  999.0,  999.0
2013/04/27 02:30,  999.0,    1.0,    1.1,   -0.4,    1.2,    0.7,    0.3,    1.5,    1.6,    1.8,    1.7,    2.2,    3.0,    2.8,    4.0,    2.5,    1.4,    0.7,    0.3,    0.0,  999.0,  999.0,  999.0,  999.0,   -0.0,   -0.1,   -0.2,    0.2,    0.1,    0.0,   -0.2,    0.3,    0.0,   -0.0,   -0.4,    0.1,    0.4,    0.1,   -0.4,   -0.1,   -0.1,    0.5,   -0.2,   -0.0,    0.1,   -0.2,   -0.0,    0.2,    0.1,    0.2,   -0.1,   -0.1,   -0.1,    0.5,   -0.1,   -0.3,   -0.1,   -0.1,    0.0,    0.1,    0.0,    0.1,   -0.1,    0.1,    0.1,   -0.1,    0.2,   -0.1,  999.0,  999.0,  999.0,  999.0,  999.0,  999.0,  999.0,  999.0,  999.0,  999.0,  999.0,  999.0
2013/04/27 02:40,  999.0,    0.0,   -0.0,    0.7,  999.0,    2.7,  999.0,    1.1,    2.3,    5.4,    4.6,    4.3,  999.0,    3.9,    4.8,   11.4,   10.6,   10.3,    7.5,    8.1,    8.6,    7.5,    8.4,    6.6,    0.2,    0.4,    0.4,    0.8,    0.6,   -0.1,    0.2,   -0.2,    0.0,   -0.1,    0.4,    0.3,  999.0,    1.2,    0.3,    0.1,    0.1,  999.0,    0.1,   -0.0,    0.0,    0.0,    0.0,   -0.2,   -0.2,   -0.1,    0.2,    0.0,    0.1,   -0.0,    0.1,    0.0,    0.1,   -0.2,   -0.1,   -0.1,   -0.2,    0.1,    0.1,   -0.1,   -0.2,   -0.1,  999.0,  999.0,  999.0,  999.0,  999.0,  999.0,  999.0,  999.0,  999.0,  999.0,  999.0,  999.0,  999.0,  999.0
2013/04/27 02:50,  999.0,    1.6,    3.2,    5.2,    3.0,    1.5,    6.3,    4.7,    7.7,   10.7,   11.5,   12.5,   13.4,   14.9,   15.3,   16.1,   17.0,   16.4,   15.6,  999.0,  999.0,  999.0,  999.0,  999.0,  999.0,    0.6,    0.2,    0.1,   -0.1,    0.1,   -0.1,   -0.1,   -0.0,    0.2,    0.2,   -0.1,   -0.1,   -0.0,    0.1,   -0.1,   -0.2,    0.1,    0.0,    0.0,   -0.0,   -0.0,    0.0,   -0.1,    0.1,    0.1,    0.1,    0.2,   -0.1,   -0.1,    0.1,    0.1,    0.0,    0.4,   -0.0,    0.0,    0.1,   -0.1,    0.2,    0.1,    0.1,   -0.0,   -0.0,  999.0,   -0.0,  999.0,  999.0,  999.0,  999.0,  999.0,  999.0,  999.0,  999.0,  999.0,  999.0,  999.0
2013/04/27 03:00,  999.0,  999.0,  999.0,  999.0,  999.0,  999.0,  999.0,  999.0,  999.0,  999.0,  999.0,  999.0,   13.8,   14.2,   13.0,   14.0,   14.7,   14.9,   15.6,   15.6,   15.8,   16.2,   16.9,   17.2,   15.1,   16.1,   11.0,    7.6,    6.1,  999.0,  999.0,  999.0,  999.0,  999.0,  999.0,  999.0,  999.0,  999.0,  999.0,  999.0,  999.0,  999.0,  999.0,  999.0,  999.0,  999.0,  999.0,  999.0,  999.0,  999.0,  999.0,  999.0,  999.0,  999.0,  999.0,  999.0,  999.0,  999.0,  999.0,  999.0,  999.0,  999.0,  999.0,  999.0,  999.0,  999.0,  999.0,  999.0,  999.0,  999.0,  999.0,  999.0,  999.0,  999.0,  999.0,  999.0,  999.0,  999.0,  999.0,  999.0
2013/04/27 03:10,  999.0,    0.8,    2.9,    3.0,    1.9,    1.8,    1.4,    0.3,    0.9,    1.4,    1.6,    2.3,    2.4,    1.9,    1.0,    0.8,    0.6,    0.4,    0.4,    0.4,    0.6,    0.7,    0.9,    0.6,    0.4,    0.5,    0.5,    0.3,    0.5,    0.3,    0.2,   -0.1,   -0.0,    0.2,    0.1,    0.0,    0.6,    0.2,    0.1,    0.0,   -0.1,   -0.0,   -0.0,   -0.1,    0.0,    0.1,    0.0,   -0.0,    0.0,    0.0,    0.1,   -0.0,   -0.0,   -0.2,   -0.1,    0.1,    0.1,   -0.2,    0.1,   -0.2,   -0.0,    0.2,    0.2,   -0.1,    0.0,    0.1,   -0.0,  999.0,  999.0,  999.0,  999.0,  999.0,  999.0,  999.0,  999.0,  999.0,  999.0,  999.0,  999.0,  999.0
2013/04/27 03:20,  999.0,  999.0,    0.4,    0.1,    0.2,    0.7,    1.2,    0.5,    1.5,    2.4,    0.8,    1.0,    2.9,    2.2,    2.5,    1.1,    1.5,    1.5,    1.3,    0.6,    0.5,    0.3,    0.7,    0.8,    0.7,    0.7,    0.3,    0.1,    0.1,    0.3,    0.3,    0.7,    0.4,    0.5,    0.1,    0.3,    0.4,    0.2,    0.3,    0.3,    0.3,    0.3,    0.3,    0.0,    0.0,    0.1,    0.0,    0.0,   -0.1,    0.2,    0.0,    0.0,   -0.0,    0.0,    0.0,    0.1,   -0.0,    0.2,    0.0,   -0.2,   -0.1,   -0.1,   -0.0,   -0.0,    0.1,    0.1,   -0.2,  999.0,  999.0,   -0.1,  999.0,  999.0,  999.0,  999.0,  999.0,  999.0,  999.0,  999.0,  999.0,  999.0
2013/04/27 03:30,  999.0,   -0.0,    0.3,   -0.1,    0.6,    0.3,    0.8,    0.7,    2.7,    3.3,    3.3,    2.6,    2.0,    2.5,    4.0,    5.0,    5.3,    4.2,    3.9,    4.6,    3.9,    4.5,    1.3,    4.5,    3.0,    2.8,    3.1,    1.2,    0.8,    1.1,    1.0,    0.9,    1.2,    0.6,    0.6,    0.6,    0.6,    0.5,    0.5,    0.4,    0.3,    0.1,    0.0,    0.2,    0.2,    0.1,    0.2,    0.0,    0.1,   -0.0,    0.1,    0.1,    0.1,    0.1,   -0.0,   -0.1,   -0.1,   -0.1,    0.2,   -0.1,   -0.1,    0.1,    0.1,   -0.0,    0.0,   -0.0,   -0.0,   -0.1,   -0.1,  999.0,    0.0,  999.0,    0.2,    0.1,  999.0,  999.0,  999.0,  999.0,  999.0,  999.0
2013/04/27 03:40,  999.0,   -0.2,   -1.1,   -1.0,   -0.2,    0.5,    0.2,    1.9,    1.7,    2.9,    3.2,    5.1,    6.1,    8.1,    7.8,   12.7,   11.2,   12.8,   14.1,   16.7,   17.0,   19.0,   20.0,   19.6,   17.9,   18.7,   16.3,  999.0,  999.0,  999.0,  999.0,    0.2,   -0.1,   -0.0,    0.5,   -0.0,   -0.2,  999.0,    0.1,    0.0,   -0.1,   -0.0,   -0.0,   -0.3,   -0.3,   -0.2,   -0.1,    0.1,   -0.1,    0.0,    0.2,    0.1,   -0.0,   -0.1,   -0.2,   -0.2,    0.1,   -0.1,   -0.0,    0.1,   -0.0,    0.2,    0.0,   -0.0,   -0.2,    0.1,    0.2,    0.2,  999.0,    0.3,  999.0,  999.0,    0.2,  999.0,  999.0,  999.0,  999.0,  999.0,  999.0,  999.0
2013/04/27 03:50,  999.0,   -0.2,   -1.4,   -1.2,   -0.2,    0.3,    1.7,    2.5,    2.1,    4.0,    5.3,    6.9,    6.1,    7.1,  999.0,   11.0,   12.0,   13.7,   15.4,   16.4,   19.0,   19.2,   19.3,   19.2,   20.3,   21.5,   20.2,   20.3,  999.0,  999.0,  999.0,  999.0,  999.0,    0.2,    0.2,    3.6,  999.0,    0.0,  999.0,    0.4,    0.3,    0.1,    0.2,   -0.1,   -0.2,   -0.0,    0.1,    0.3,    0.1,    0.0,   -0.1,   -0.0,   -0.1,   -0.1,    0.1,   -0.2,   -0.0,   -0.2,   -0.0,   -0.1,   -0.2,   -0.0,   -0.3,   -0.2,   -0.0,    0.4,  999.0,    0.3,  999.0,  999.0,  999.0,  999.0,    0.1,    0.4,  999.0,  999.0,  999.0,  999.0,  999.0,  999.0
2013/04/27 04:00,  999.0,    0.2,   -0.4,   -0.6,    0.4,   -0.3,    0.3,    0.5,    1.4,    0.9,    2.7,    2.4,    2.6,    2.9,    1.7,    1.1,    0.7,    0.6,    0.4,    2.4,    8.2,  999.0,   12.2,   13.2,  999.0,  999.0,    8.3,    1.8,  999.0,    1.8,    1.0,    1.0,    0.7,    0.8,    0.1,    0.1,    0.4,    0.0,    0.1,    0.2,    0.1,   -0.1,   -0.0,   -0.0,   -0.1,  999.0,  999.0,    0.0,   -0.2,   -0.0,   -0.0,    0.0,    0.0,   -0.0,   -0.1,   -0.1,   -0.1,   -0.2,    0.1,    0.1,   -0.0,   -0.1,   -0.0,   -0.1,  999.0,    0.1,    0.1,   -0.3,  999.0,  999.0,  999.0,  999.0,  999.0,  999.0,  999.0,  999.0,  999.0,  999.0,  999.0,  999.0
2013/04/27 04:10,  999.0,   -0.4,   -1.4,   -0.6,   -0.2,   -0.3,   -0.7,    0.2,    0.5,    0.3,    0.2,    0.2,    0.1,  999.0,  999.0,  999.0,  999.0,  999.0,  999.0,  999.0,    8.2,  999.0,  999.0,  999.0,  999.0,   11.1,   14.5,   12.3,   10.8,  999.0,  999.0,    1.1,    0.9,  999.0,    0.4,    0.2,  999.0,    0.2,  999.0,   -0.1,   -0.3,   -0.0,   -0.0,   -0.1,   -0.1,    0.0,   -0.2,   -0.1,   -0.1,   -0.1,    0.2,    0.2,   -0.1,   -0.2,    0.0,    0.1,   -0.0,    0.1,    0.0,   -0.1,   -0.1,    0.1,   -0.1,   -0.2,   -0.1,   -0.0,    0.1,  999.0,   -0.2,  999.0,  999.0,  999.0,  999.0,  999.0,  999.0,  999.0,  999.0,  999.0,  999.0,  999.0
2013/04/27 04:20,  999.0,   -0.5,   -0.3,   -1.0,   -0.2,   -0.5,   -0.9,   -0.1,    0.1,    0.5,    0.8,  999.0,  999.0,    1.1,  999.0,  999.0,  999.0,  999.0,  999.0,   13.2,   14.8,   19.2,   21.7,   22.3,  999.0,   19.4,   20.1,  999.0,  999.0,  999.0,  999.0,  999.0,  999.0,  999.0,   -0.1,   -0.1,  999.0,   -0.1,    0.2,   -0.4,   -0.2,    0.2,    0.2,    0.1,    0.0,   -0.0,    0.1,    0.3,    0.1,   -0.0,   -0.1,   -0.1,   -0.0,    0.1,   -0.1,    0.0,    0.1,   -0.2,   -0.2,    0.2,   -0.0,   -0.1,   -0.1,   -0.0,    0.1,    0.0,   -0.0,   -0.2,    0.0,  999.0,  999.0,  999.0,  999.0,  999.0,  999.0,  999.0,  999.0,  999.0,  999.0,  999.0
2013/04/27 04:30,  999.0,   -0.0,   -0.0,    0.0,    1.3,    0.8,    0.5,    0.4,    0.4,    0.5,    0.9,    0.9,    1.0,    1.5,    1.7,    0.8,    0.6,    0.7,    0.9,    0.9,    1.0,    3.0,  999.0,  999.0,    1.0,  999.0,    1.0,    0.4,   -0.0,    1.1,    1.7,   -0.3,    0.5,  999.0,   -0.1,    0.2,  999.0,    0.3,    0.3,    0.3,   -0.1,   -0.4,   -0.0,    0.0,   -0.2,    0.0,  999.0,   -0.2,    0.0,    0.1,    0.1,   -0.1,   -0.0,   -0.1,   -0.1,   -0.2,   -0.0,    0.2,    0.2,    0.2,    0.1,   -0.1,   -0.0,    0.0,    0.2,   -0.1,   -0.3,  999.0,  999.0,  999.0,   -0.0,  999.0,  999.0,  999.0,  999.0,  999.0,  999.0,  999.0,  999.0,  999.0
2013/04/27 04:40,  999.0,    0.3,    0.2,  999.0,    0.4,    0.2,    0.3,    0.3,    0.4,    1.3,    2.3,    4.1,    5.3,    6.8,  999.0,  999.0,    7.1,    7.3,    5.9,    5.7,  999.0,    2.5,  999.0,   -0.8,    0.1,   -0.2,   -0.0,    0.1,    0.4,   -0.0,   -0.5,    0.0,   -0.3,   -0.3,  999.0,   -0.3,  999.0,  999.0,   -0.5,   -0.3,   -0.5,    0.1,    0.1,    0.2,    0.0,    0.3,    0.1,    0.1,   -0.2,   -0.2,    0.1,    0.0,    0.2,    0.0,   -0.1,   -0.1,    0.0,   -0.2,    0.2,   -0.0,    0.1,    0.1,   -0.5,    0.1,    0.0,  999.0,  999.0,  999.0,  999.0,  999.0,  999.0,  999.0,  999.0,  999.0,  999.0,  999.0,  999.0,  999.0,  999.0,  999.0
2013/04/27 04:50,  999.0,    0.1,    0.8,    0.7,    0.6,    0.7,    0.7,    1.0,    1.3,    0.6,   -0.3,    0.9,    5.0,  999.0,  999.0,   12.5,  999.0,  999.0,   16.7,   17.3,  999.0,  999.0,  999.0,  999.0,  999.0,  999.0,  999.0,  999.0,  999.0,  999.0,  999.0,  999.0,   -0.3,   -0.3,   -0.1,    0.0,  999.0,    0.4,   -0.3,   -0.2,   -0.2,   -0.2,    0.0,    0.1,    0.1,    0.1,    0.0,   -0.1,   -0.0,    0.1,    0.1,    0.1,    0.1,   -0.1,   -0.3,   -0.0,    0.1,    0.0,   -0.1,    0.0,    0.1,    0.1,   -0.3,   -0.1,    0.1,  999.0,  999.0,  999.0,  999.0,  999.0,  999.0,  999.0,  999.0,  999.0,  999.0,  999.0,  999.0,  999.0,  999.0,  999.0
2013/04/27 05:00,  999.0,    0.1,    0.3,    1.5,    1.1,    0.9,    1.1,    1.0,    1.0,    0.1,    3.0,    3.3,    5.9,    8.3,    6.4,    9.7,  999.0,   12.3,   13.9,  999.0,   13.9,   14.2,   14.7,   15.8,   15.7,  999.0,  999.0,  999.0,  999.0,  999.0,  999.0,    0.5,    0.5,    0.8,    0.5,    0.5,    0.1,  999.0,    0.1,    0.0,   -0.1,   -0.1,    0.0,    0.0,    0.1,    0.1,    0.1,    0.0,   -0.2,   -0.0,    0.0,   -0.0,   -0.0,    0.2,    0.1,    0.1,    0.1,   -0.1,   -0.1,   -0.1,    0.0,    0.0,    0.1,   -0.0,   -0.4,    0.0,    0.1,    0.1,   -0.1,  999.0,  999.0,  999.0,  999.0,  999.0,  999.0,  999.0,  999.0,  999.0,  999.0,  999.0
2013/04/27 05:10,  999.0,  999.0,  999.0,    0.6,    0.5,    0.4,    1.7,  999.0,    3.0,    5.7,    5.6,    5.7,    7.8,    9.4,   10.8,   11.3,   11.5,   14.0,   14.7,   14.1,   16.0,   16.2,   17.2,   16.7,   16.6,   16.8,  999.0,  999.0,  999.0,  999.0,  999.0,    0.7,  999.0,  999.0,    0.2,  999.0,  999.0,  999.0,    0.2,    0.2,   -0.2,   -0.2,    0.0,    0.2,   -0.1,   -0.3,   -0.1,   -0.0,   -0.1,   -0.1,   -0.1,    0.0,    0.2,   -0.0,    0.1,   -0.0,    0.1,    0.1,   -0.1,   -0.0,   -0.0,   -0.2,    0.1,  999.0,  999.0,  999.0,    0.2,   -0.0,    0.3,   -0.1,  999.0,  999.0,  999.0,  999.0,  999.0,  999.0,  999.0,  999.0,  999.0,  999.0
2013/04/27 05:20,  999.0,    0.2,    1.0,    0.5,    0.5,    0.4,    2.6,    2.6,    5.1,    5.5,    8.5,    7.5,   10.3,   10.6,   13.8,   13.6,   13.9,   15.4,   16.4,   17.0,   17.1,   18.8,   18.2,   17.8,  999.0,  999.0,  999.0,  999.0,    5.5,    0.7,    7.0,    0.4,   -0.4,    0.0,  999.0,  999.0,  999.0,  999.0,  999.0,   -0.1,   -0.3,   -0.3,   -0.0,    0.4,    0.4,    0.5,    0.1,   -0.1,   -0.1,    0.1,    0.2,    0.1,    0.1,    0.2,    0.0,   -0.1,    0.2,   -0.1,    0.4,    0.3,   -0.0,    0.1,   -0.4,  999.0,  999.0,  999.0,    0.1,  999.0,    0.1,  999.0,  999.0,  999.0,  999.0,  999.0,  999.0,  999.0,  999.0,  999.0,  999.0,  999.0
2013/04/27 05:30,  999.0,   11.0,   10.5,  999.0,  999.0,  999.0,  999.0,    8.0,    7.0,   12.8,   11.7,   13.2,   12.8,   13.9,   14.7,   15.2,   16.4,   17.6,   18.9,   18.9,   19.5,  999.0,   18.6,  999.0,  999.0,  999.0,  999.0,  999.0,  999.0,  999.0,  999.0,  999.0,  999.0,  999.0,  999.0,  999.0,  999.0,  999.0,  999.0,  999.0,  999.0,  999.0,  999.0,  999.0,  999.0,  999.0,  999.0,  999.0,  999.0,  999.0,  999.0,  999.0,  999.0,  999.0,  999.0,  999.0,    0.6,    0.1,    0.1,   -0.2,  999.0,   -0.1,   -0.1,    0.0,   -0.1,    0.2,    0.1,  999.0,    0.9,  999.0,  999.0,  999.0,  999.0,  999.0,  999.0,  999.0,  999.0,  999.0,  999.0,  999.0
2013/04/27 05:40,  999.0,   -0.8,  999.0,    7.3,    6.8,    3.1,  999.0,  999.0,  999.0,   12.1,   12.7,   12.3,   12.5,   14.2,   16.1,   17.3,   18.8,   20.7,   22.2,   21.7,   21.7,  999.0,  999.0,  999.0,  999.0,  999.0,  999.0,   -0.0,  999.0,  999.0,   -0.2,  999.0,  999.0,    0.3,  999.0,    0.2,  999.0,  999.0,  999.0,  999.0,   -0.5,  999.0,  999.0,  999.0,  999.0,   -0.0,  999.0,  999.0,  999.0,  999.0,  999.0,  999.0,    0.1,  999.0,  999.0,  999.0,  999.0,   -0.0,  999.0,  999.0,   -0.0,    0.1,    0.1,  999.0,    0.3,   -0.1,  999.0,    0.3,   -0.1,  999.0,  999.0,  999.0,  999.0,  999.0,  999.0,  999.0,  999.0,  999.0,  999.0,  999.0
2013/04/27 05:50,  999.0,   -0.2,    0.0,    0.4,    0.8,    0.7,  999.0,    2.5,    5.0,    7.9,    9.4,    9.8,   10.4,   11.5,   13.3,  999.0,  999.0,  999.0,  999.0,  999.0,  999.0,  999.0,  999.0,  999.0,   -0.1,    0.3,    0.9,    0.7,    0.3,   -0.1,    0.0,    0.1,    0.1,   -0.0,    0.4,   -0.2,    0.1,   -0.1,    0.0,  999.0,   -0.1,   -0.3,    0.3,   -0.0,  999.0,    0.2,   -0.3,  999.0,   -0.1,  999.0,    0.1,    0.1,   -0.2,   -0.0,   -0.4,   -0.0,   -0.1,   -0.0,    0.0,    0.0,    0.1,    0.0,   -0.2,    0.2,    0.1,    0.0,    0.1,    0.2,    0.0,  999.0,  999.0,  999.0,  999.0,  999.0,  999.0,  999.0,  999.0,  999.0,  999.0,  999.0
2013/04/27 06:00,  999.0,   -0.0,   -0.3,   -0.2,    0.2,   -0.0,   -0.1,    0.2,    0.7,    1.1,  999.0,    2.7,    4.7,    4.1,  999.0,   -0.6,  999.0,    0.6,  999.0,  999.0,  999.0,  999.0,   -0.2,    0.2,    0.7,    0.5,    0.8,    0.4,    1.0,    0.6,    0.3,    0.1,    0.2,    0.2,   -0.1,    0.2,    0.1,  999.0,    0.1,   -0.1,   -0.5,   -0.0,    0.2,   -0.1,    0.3,    0.1,    0.2,   -0.1,   -0.2,    0.2,    0.4,    0.7,   -0.1,    0.1,    0.0,   -0.1,    0.0,   -0.2,    0.2,   -0.1,    0.0,    0.0,    0.3,    0.2,   -0.2,    0.1,    0.1,  999.0,   -0.0,  999.0,  999.0,  999.0,  999.0,  999.0,  999.0,  999.0,  999.0,  999.0,  999.0,  999.0
2013/04/27 06:10,  999.0,   -0.1,    0.1,   -0.1,    0.4,    1.0,    0.8,    0.6,    1.4,    1.0,    0.9,    0.7,    1.0,    0.9,    1.1,    0.5,    1.1,    1.1,    1.0,   -0.1,   -0.7,   -0.3,    0.3,    0.7,    0.4,   -0.0,   -0.3,   -0.7,   -0.4,   -0.0,    0.0,   -0.1,   -0.3,   -0.4,   -0.1,   -0.1,    0.4,   -0.0,    0.4,    0.0,   -0.3,   -0.2,    0.1,  999.0,   -0.0,   -0.1,   -0.0,   -0.1,    0.0,    0.1,   -0.2,    0.2,    0.1,    0.1,   -0.0,    0.1,    0.1,    0.0,    0.0,   -0.0,   -0.2,   -0.0,    0.1,    0.1,    0.2,    0.3,   -0.0,   -0.3,    0.1,  999.0,  999.0,  999.0,  999.0,  999.0,  999.0,  999.0,  999.0,  999.0,  999.0,  999.0
2013/04/27 06:20,  999.0,   -0.3,    0.8,   -0.4,   -0.6,    0.2,    0.8,    0.3,    0.1,   -0.3,   -1.4,    0.5,   -0.9,   -0.2,   -0.2,   -2.0,   -1.4,   -1.8,   -1.2,   -2.2,   -2.5,   -2.0,   -1.4,   -1.1,   -0.8,   -0.8,   -0.4,   -0.9,    0.1,   -0.3,   -0.3,   -0.2,   -0.1,    0.0,   -0.2,    0.1,   -0.1,   -0.1,  999.0,    0.2,   -0.1,   -0.2,   -0.3,    0.1,    0.3,    0.2,    0.0,   -0.1,    0.3,   -0.1,    0.2,    0.0,    0.2,    0.1,    0.3,    0.1,    0.0,    0.1,    0.0,    0.0,   -0.1,    0.0,   -0.1,    0.1,  999.0,   -0.0,    0.2,    0.0,   -0.3,  999.0,  999.0,  999.0,  999.0,  999.0,  999.0,  999.0,  999.0,  999.0,  999.0,  999.0
2013/04/27 06:30,  999.0,   -0.4,   -0.3,    0.0,    0.5,    0.2,    1.3,    1.4,    1.3,    1.2,  999.0,  999.0,  999.0,  999.0,  999.0,  999.0,  999.0,  999.0,  999.0,  999.0,   -5.7,  999.0,   -4.2,   -1.7,   -1.6,   -0.4,   -0.4,   -0.2,   -0.5,    4.9,    3.7,  999.0,    0.1,    0.0,   -0.4,    0.1,  999.0,    0.0,    0.4,   -0.2,   -0.2,   -0.1,   -0.1,    0.2,    0.2,    0.1,   -0.1,   -0.0,   -0.0,   -0.0,    0.0,    0.2,    0.1,   -0.0,   -0.1,   -0.0,    0.0,    0.0,   -0.1,    0.1,    0.0,    0.0,    0.1,  999.0,  999.0,    0.1,    0.1,    0.1,  999.0,  999.0,  999.0,  999.0,  999.0,  999.0,  999.0,  999.0,  999.0,  999.0,  999.0,  999.0
2013/04/27 06:40,  999.0,   -0.5,   -0.1,    0.6,    1.2,    2.1,    1.6,    1.1,    2.1,    1.9,    1.7,    3.2,    3.2,  999.0,  999.0,  999.0,  999.0,  999.0,  999.0,  999.0,  999.0,  999.0,  999.0,   -0.6,   -0.3,   -0.5,   -0.4,   -0.0,   -0.1,    0.0,   -0.2,   -0.1,   -0.3,    0.2,   -0.1,   -0.6,    0.2,  999.0,    0.2,    0.3,    0.0,   -0.3,    0.0,   -0.2,   -0.1,    0.1,    0.2,    0.0,   -0.1,    0.3,    0.3,    0.4,   -0.1,   -0.0,    0.1,    0.2,   -0.0,   -0.1,   -0.0,   -0.1,    0.0,    0.0,    0.1,    0.0,   -0.0,   -0.1,    0.1,   -0.2,   -0.0,  999.0,  999.0,  999.0,  999.0,    0.2,  999.0,  999.0,  999.0,  999.0,  999.0,  999.0
2013/04/27 06:50,  999.0,   -0.5,    0.1,    0.1,    1.3,    1.5,    1.4,    1.4,    0.9,    0.4,    0.7,    0.9,    0.7,    0.9,    0.8,    0.8,    0.5,    0.1,   -0.0,    0.2,  999.0,  999.0,   -0.8,   -0.5,   -0.4,   -0.4,   -0.5,   -0.3,   -0.0,   -0.1,   -0.0,    0.0,   -0.2,   -0.3,    0.1,    0.1,   -0.3,   -0.6,   -0.1,    0.1,   -0.0,   -0.3,   -0.1,   -0.1,    0.1,    0.1,   -0.0,   -0.1,   -0.2,    0.1,   -0.0,    0.0,    0.1,    0.0,   -0.0,   -0.0,    0.1,    0.0,   -0.0,   -0.1,   -0.1,   -0.1,    0.1,   -0.0,    0.1,   -0.1,   -0.0,    0.0,  999.0,  999.0,  999.0,  999.0,  999.0,  999.0,  999.0,  999.0,  999.0,  999.0,  999.0,  999.0
2013/04/27 07:00,  999.0,   -0.4,   -0.5,    0.0,    0.3,    0.5,    1.3,    1.4,    1.5,    1.0,    0.5,    0.4,   -0.0,    0.1,    0.1,    0.1,   -0.1,   -0.1,    0.2,    0.1,    0.1,   -0.1,   -0.0,   -0.1,   -0.1,   -0.2,   -0.2,    0.1,   -0.0,   -0.0,    0.1,    0.2,    0.1,    0.0,   -0.2,    0.5,   -0.0,    0.0,   -0.0,   -0.0,   -0.1,   -0.2,    0.1,    0.0,    0.1,   -0.1,    0.1,   -0.2,   -0.2,   -0.2,   -0.0,    0.1,   -0.1,    0.1,    0.0,    0.0,   -0.1,   -0.0,   -0.2,    0.1,   -0.1,    0.0,    0.1,    0.0,   -0.1,  999.0,   -0.0,    0.0,    0.0,  999.0,  999.0,  999.0,  999.0,  999.0,  999.0,  999.0,  999.0,  999.0,  999.0,  999.0
2013/04/27 07:10,  999.0,    0.1,    0.0,    0.1,    0.4,    0.5,    1.0,    1.8,    1.8,    1.5,    0.9,    1.2,    0.8,    0.7,    0.0,    0.4,    0.1,    0.1,    0.1,   -0.0,    0.0,   -0.0,   -0.1,   -0.2,   -0.3,   -0.1,   -0.1,   -0.4,   -0.3,   -0.1,    0.1,    0.0,    0.1,    0.1,    0.1,    0.1,   -0.2,   -0.1,   -0.1,    0.1,   -0.0,   -0.3,   -0.2,   -0.1,   -0.1,    0.1,    0.2,   -0.1,   -0.1,   -0.1,   -0.0,   -0.2,   -0.1,    0.2,   -0.1,   -0.1,   -0.0,   -0.1,   -0.0,   -0.1,    0.1,   -0.1,    0.1,    0.1,   -0.1,    0.2,    0.2,    0.2,    0.1,    0.1,   -0.2,   -0.0,    0.3,   -0.1,   -0.1,  999.0,  999.0,  999.0,  999.0,  999.0
2013/04/27 07:20,  999.0,   -0.2,   -0.7,    0.1,    0.2,    0.7,    0.9,    0.6,    0.8,    1.0,    0.7,    0.7,    0.5,    0.6,    0.4,    0.4,    0.1,    0.0,    0.1,    0.0,   -0.1,    0.1,    0.5,    0.2,    0.2,    0.2,    0.1,    0.1,    0.0,    0.1,    0.5,    0.4,    0.2,    0.1,    0.3,    0.0,   -0.1,    0.2,    0.2,    0.3,    0.0,   -0.1,    0.1,   -0.0,   -0.1,   -0.1,    0.1,    0.1,   -0.0,    0.0,   -0.1,   -0.2,   -0.1,    0.1,   -0.1,    0.1,    0.1,   -0.1,   -0.0,   -0.0,   -0.2,   -0.2,   -0.0,    0.1,    0.1,    0.1,    0.1,    0.1,   -0.1,  999.0,  999.0,  999.0,    0.3,    0.3,   -0.1,  999.0,  999.0,  999.0,  999.0,  999.0
2013/04/27 07:30,  999.0,    0.1,   -0.2,   -0.1,   -0.3,   -0.2,   -0.0,   -0.2,    0.1,    0.2,    0.7,    0.6,    0.5,    0.1,    0.1,    0.5,    0.4,    0.4,   -0.0,   -0.0,    0.1,    0.4,    0.5,    0.4,    0.1,    0.1,   -0.0,    0.1,    0.4,    0.3,    0.4,    0.4,    0.4,    0.2,    0.2,    0.3,   -0.0,   -0.0,    0.0,    0.0,   -0.2,   -0.1,   -0.1,   -0.1,   -0.1,   -0.1,   -0.0,    0.2,    0.0,   -0.1,   -0.1,    0.0,   -0.2,   -0.0,   -0.1,   -0.1,   -0.0,   -0.0,    0.0,   -0.1,   -0.4,   -0.1,   -0.1,   -0.0,   -0.3,   -0.1,    0.0,   -0.2,   -0.3,  999.0,   -0.1,    0.1,  999.0,   -0.1,    0.2,  999.0,  999.0,  999.0,  999.0,  999.0
2013/04/27 07:40,  999.0,    0.0,    0.3,    0.2,    0.3,    0.5,    0.1,   -0.0,   -0.0,   -0.1,   -0.3,   -0.2,    0.2,    0.0,    0.5,    0.2,    0.2,    0.3,    0.3,    0.4,    0.4,    0.3,   -0.1,    0.1,   -0.2,   -0.2,   -0.2,   -0.0,    0.0,   -0.0,   -0.1,   -0.1,    0.0,   -0.1,    0.1,   -0.0,   -0.1,    0.1,    0.2,    0.0,   -0.3,   -0.2,   -0.1,    0.3,    0.2,    0.1,    0.0,   -0.0,    0.0,   -0.1,   -0.1,   -0.3,   -0.1,    0.1,   -0.1,   -0.2,   -0.1,   -0.2,    0.2,   -0.0,   -0.1,   -0.0,   -0.1,   -0.0,    0.0,    0.1,    0.2,   -0.3,    0.3,  999.0,    0.0,    0.1,    0.1,   -0.1,   -0.2,  999.0,  999.0,  999.0,  999.0,  999.0
2013/04/27 07:50,  999.0,  999.0,    0.0,   -0.2,   -0.1,   -0.1,    0.0,    0.0,    0.0,   -0.2,   -0.3,   -0.1,    0.0,    0.3,  999.0,    0.0,    0.0,   -0.0,    0.1,    0.1,   -0.1,   -0.0,    0.2,    0.1,    0.1,    0.0,    0.0,   -0.1,    0.1,    0.1,    0.2,    0.0,   -0.0,   -0.2,   -0.0,    0.0,    0.0,    0.1,    0.1,   -0.1,    0.0,    0.1,    0.0,    0.1,    0.0,    0.1,   -0.0,   -0.1,    0.0,   -0.1,   -0.1,    0.0,    0.0,   -0.2,   -0.1,    0.1,   -0.1,   -0.2,    0.2,   -0.0,   -0.1,    0.1,   -0.1,    0.2,   -0.0,    0.1,   -0.0,   -0.1,    0.0,    0.0,    0.0,    0.1,   -0.0,  999.0,   -0.1,  999.0,  999.0,  999.0,  999.0,  999.0
2013/04/27 08:00,  999.0,    0.1,   -0.1,    0.1,    0.1,   -0.0,    0.1,  999.0,    0.1,    0.1,   -0.0,    0.1,  999.0,    0.2,    0.4,    0.1,   -0.0,   -0.0,    0.1,    0.1,    0.0,    0.0,   -0.0,    0.1,    0.1,    0.1,    0.0,   -0.0,   -0.1,   -0.2,    0.0,    0.1,    0.1,    0.1,   -0.1,   -0.0,    0.1,    0.1,    0.0,   -0.0,   -0.0,    0.1,    0.0,   -0.1,   -0.0,   -0.0,   -0.1,   -0.1,   -0.2,   -0.0,   -0.1,    0.0,    0.0,   -0.1,   -0.3,    0.0,    0.0,   -0.1,   -0.1,   -0.0,    0.0,    0.0,    0.2,    0.0,    0.1,    0.1,    0.0,   -0.1,   -0.1,   -0.1,   -0.1,   -0.2,   -0.1,   -0.1,   -0.1,  999.0,  999.0,  999.0,  999.0,  999.0
2013/04/27 08:10,  999.0,    0.0,   -0.1,    0.1,    0.1,   -0.0,    0.1,   -0.4,    0.0,    0.2,    0.4,    0.6,    0.4,    0.2,    0.1,   -0.4,    0.2,    0.1,   -0.0,    0.0,   -0.0,   -0.0,    0.0,    0.0,    0.1,   -0.0,   -0.1,    0.0,   -0.1,    0.1,    0.4,   -0.1,   -0.1,    0.0,    0.1,   -0.0,   -0.1,    0.1,    0.1,    0.1,   -0.1,    0.0,    0.1,    0.2,   -0.0,   -0.0,   -0.0,   -0.0,    0.0,   -0.1,   -0.1,    0.1,   -0.0,    0.1,    0.0,   -0.1,   -0.2,   -0.0,   -0.0,   -0.0,   -0.2,   -0.2,    0.1,    0.1,    0.0,   -0.1,   -0.1,   -0.0,   -0.1,   -0.1,    0.2,    0.2,    0.0,   -0.0,    0.1,  999.0,  999.0,  999.0,  999.0,  999.0
2013/04/27 08:20,  999.0,   -0.2,   -0.6,   -0.4,    0.0,    0.0,    0.1,    0.2,    0.0,    0.2,   -0.0,    0.1,    0.1,    0.0,    0.1,    0.5,    0.5,    0.2,    0.1,    0.0,   -0.1,    0.0,    0.0,   -0.0,    0.0,    0.1,    0.0,   -0.1,    0.0,   -0.0,   -0.0,   -0.0,   -0.0,   -0.0,    0.0,    0.1,   -0.0,    0.0,    0.0,   -0.0,   -0.2,   -0.1,   -0.0,    0.0,    0.0,   -0.0,    0.2,    0.0,   -0.0,   -0.1,    0.0,    0.0,   -0.0,   -0.2,   -0.1,   -0.1,   -0.1,    0.2,   -0.1,    0.1,   -0.0,   -0.1,   -0.1,   -0.2,   -0.1,   -0.2,   -0.0,   -0.1,   -0.1,   -0.1,    0.0,   -0.1,    0.0,   -0.3,   -0.1,  999.0,  999.0,  999.0,  999.0,  999.0
2013/04/27 08:30,  999.0,   -0.1,   -0.1,    0.2,   -0.0,    0.1,    0.1,    0.2,    0.4,    0.1,   -0.0,    0.1,    0.2,    0.4,    0.4,    0.5,    0.4,    0.2,    0.3,    0.5,    0.2,    0.2,    0.3,    0.1,    0.1,   -0.2,    0.2,    0.0,   -0.0,   -0.0,   -0.0,    0.1,   -0.0,   -0.0,    0.1,    0.0,   -0.0,   -0.1,    0.0,    0.1,   -0.1,   -0.1,   -0.0,    0.1,    0.1,    0.1,    0.0,   -0.1,   -0.1,   -0.2,    0.0,    0.1,   -0.0,    0.0,    0.1,    0.0,    0.1,    0.3,   -0.2,   -0.2,   -0.2,   -0.1,    0.0,   -0.0,    0.0,    0.0,    0.1,    0.0,   -0.0,   -0.2,   -0.0,    0.1,    0.0,   -0.1,    0.3,  999.0,  999.0,  999.0,  999.0,  999.0
2013/04/27 08:40,  999.0,    0.1,   -0.3,    0.7,    0.5,    0.1,   -0.0,   -0.2,    0.3,    0.7,    1.2,    1.2,    0.7,  999.0,  999.0,    0.2,    0.3,    0.1,    0.1,    0.1,    0.1,    0.0,   -0.0,    0.0,    0.0,    0.0,    0.0,   -0.1,    0.1,    0.1,   -0.1,   -0.2,   -0.0,   -0.0,   -0.1,    0.1,    0.1,    0.1,    0.0,    0.1,   -0.0,   -0.1,   -0.1,   -0.1,   -0.1,    0.0,   -0.0,    0.2,    0.0,   -0.0,    0.0,   -0.1,   -0.0,    0.0,    0.1,   -0.1,   -0.0,   -0.1,   -0.2,   -0.1,    0.1,   -0.0,    0.1,    0.1,  999.0,   -0.0,    0.0,    0.0,    0.2,    0.0,    0.1,  999.0,   -0.1,   -0.3,   -0.2,  999.0,  999.0,  999.0,  999.0,  999.0
2013/04/27 08:50,  999.0,   -0.0,    0.2,    0.0,    0.3,    0.2,    0.0,   -0.0,    0.3,    0.3,    0.2,    0.7,    0.7,    0.4,    0.2,    0.5,    0.3,    0.2,    0.1,    0.0,    0.1,    0.1,   -0.1,    0.0,   -0.0,   -0.0,   -0.0,   -0.1,   -0.0,    0.1,   -0.0,   -0.1,   -0.1,    0.0,    0.0,   -0.0,   -0.0,    0.0,   -0.0,   -0.0,   -0.0,   -0.1,   -0.0,    0.0,   -0.1,    0.1,    0.0,   -0.0,   -0.1,    0.0,    0.2,    0.1,    0.1,    0.1,   -0.1,   -0.1,    0.2,   -0.0,   -0.1,    0.1,    0.2,    0.1,   -0.1,   -0.1,   -0.1,   -0.2,   -0.2,    0.0,    0.1,    0.0,   -0.0,    0.1,   -0.4,  999.0,   -0.1,  999.0,  999.0,  999.0,  999.0,  999.0
2013/04/27 09:00,  999.0,    0.0,   -0.0,    0.1,    0.1,  999.0,  999.0,  999.0,   -0.1,    0.4,    0.3,   -0.1,    0.4,    0.1,    0.1,   -0.0,    0.0,    0.0,    0.1,    0.1,   -0.0,    0.0,   -0.1,    0.0,    0.0,    0.0,   -0.1,    0.0,   -0.1,   -0.0,   -0.0,   -0.1,   -0.1,    0.1,   -0.0,    0.1,    0.1,   -0.1,    0.0,   -0.1,   -0.2,   -0.1,   -0.1,    0.1,    0.1,   -0.0,    0.0,   -0.0,    0.1,   -0.0,   -0.1,    0.0,   -0.1,   -0.0,   -0.1,   -0.0,   -0.0,    0.2,    0.0,   -0.0,    0.1,    0.1,    0.1,    0.1,   -0.1,    0.1,   -0.1,   -0.1,   -0.1,   -0.1,    0.0,    0.2,   -0.1,   -0.1,    0.0,  999.0,  999.0,  999.0,  999.0,  999.0
2013/04/27 09:10,  999.0,   -0.1,   -0.1,    0.1,    0.3,    0.3,    0.9,    0.4,    0.2,    0.7,    0.7,    0.2,   -0.1,   -0.1,    0.3,    0.5,    0.1,    0.4,    0.1,    0.1,  999.0,    0.0,    0.5,    0.2,    0.0,   -0.1,   -0.0,   -0.0,   -0.1,    0.0,   -0.0,    0.0,   -0.0,    0.0,   -0.1,    0.0,    0.1,    0.0,   -0.0,    0.0,   -0.1,   -0.1,   -0.0,    0.0,    0.0,    0.0,    0.1,    0.1,   -0.1,   -0.1,    0.0,   -0.0,   -0.1,    0.1,   -0.1,    0.1,    0.1,   -0.1,    0.1,  999.0,   -0.1,   -0.0,    0.0,    0.0,    0.1,    0.1,    0.0,    0.1,    0.1,    0.2,    0.0,    0.3,  999.0,    0.2,    0.0,  999.0,  999.0,  999.0,  999.0,  999.0
2013/04/27 09:20,  999.0,    0.1,   -0.1,    0.0,    0.0,    0.3,    0.3,    0.7,    0.8,    0.8,    0.6,    0.5,    0.9,    0.6,    0.5,    0.3,    0.3,    0.5,    0.3,    0.8,    1.1,    0.8,    0.8,    0.8,    0.7,    0.3,    0.6,    0.3,    0.1,   -0.0,    0.0,   -0.1,    0.3,    0.0,    0.2,    0.1,   -0.1,    0.0,   -0.0,    0.1,   -0.3,   -0.2,    0.1,    0.2,   -0.1,   -0.0,   -0.1,   -0.0,    0.0,   -0.1,    0.1,   -0.0,   -0.0,   -0.0,   -0.1,    0.2,   -0.1,   -0.1,    0.1,   -0.1,    0.1,   -0.1,   -0.1,   -0.1,    0.2,    0.0,    0.2,    0.1,    0.1,   -0.0,    0.0,    0.1,   -0.1,   -0.0,   -0.1,  999.0,  999.0,  999.0,  999.0,  999.0
2013/04/27 09:30,  999.0,   -0.0,    0.2,   -0.1,   -0.0,    0.2,    0.1,    0.1,    0.1,    0.5,    1.2,    0.6,    0.2,    0.7,    0.7,    0.6,    0.5,    0.4,    0.4,    0.4,    0.7,    1.2,    2.4,    1.8,    1.3,    0.9,    1.2,    0.6,    0.8,    0.2,    0.0,   -0.1,   -0.2,    0.1,   -0.1,   -0.2,  999.0,   -0.1,   -0.1,   -0.1,   -0.4,   -0.1,   -0.0,    0.2,    0.0,   -0.1,   -0.0,    0.0,    0.1,   -0.2,   -0.1,    0.0,    0.1,    0.1,    0.0,   -0.0,   -0.0,    0.1,    0.0,    0.1,    0.1,    0.1,   -0.0,    0.3,    0.1,    0.2,   -0.1,    0.0,   -0.1,    0.1,    0.2,   -0.4,  999.0,  999.0,   -0.1,  999.0,  999.0,  999.0,  999.0,  999.0
2013/04/27 09:40,  999.0,   -0.0,    0.0,    0.1,    0.2,   -0.0,    0.2,    0.8,    0.7,    1.1,   -0.1,   -0.0,   -0.3,   -0.0,    0.0,   -0.0,    0.1,    0.2,    0.5,    0.2,    0.4,    1.2,  999.0,    0.1,    0.2,    0.1,    0.2,   -0.1,    0.1,    0.0,    0.1,    0.1,   -0.0,    0.1,    0.0,    0.2,    0.2,    0.0,    0.1,    0.1,   -0.4,   -0.1,    0.0,    0.1,    0.1,    0.1,    0.0,   -0.1,    0.1,   -0.0,    0.3,    0.2,    0.1,   -0.0,   -0.0,   -0.0,    0.1,   -0.1,   -0.1,    0.1,    0.1,    0.1,    0.3,    0.2,   -0.1,   -0.1,    0.1,    0.1,  999.0,    0.1,   -0.2,    0.1,    0.0,    0.0,    0.1,  999.0,  999.0,  999.0,  999.0,  999.0
2013/04/27 09:50,  999.0,  999.0,    0.1,    0.1,    0.7,    0.4,    0.5,    0.8,    0.2,    1.4,    1.3,    0.9,    0.6,    0.4,    0.2,    0.6,    0.6,    0.2,    0.3,    0.5,   -0.4,   -1.3,   -0.1,   -0.3,   -0.2,   -0.2,    0.0,    0.1,    0.1,   -0.2,    0.1,   -0.2,   -0.1,   -0.1,   -0.1,   -0.2,    0.0,    0.1,    0.1,   -0.1,   -0.3,   -0.2,    0.1,    0.1,    0.0,   -0.1,   -0.2,    0.0,   -0.2,    0.2,    0.1,   -0.1,    0.0,    0.0,   -0.2,    0.0,   -0.0,    0.0,   -0.0,    0.0,    0.0,   -0.1,   -0.1,    0.0,   -0.0,   -0.2,   -0.1,   -0.2,   -0.2,   -0.1,   -0.1,    0.1,   -0.4,   -0.0,    0.0,  999.0,  999.0,  999.0,  999.0,  999.0
2013/04/27 10:00,  999.0,  999.0,    0.0,    0.1,    0.1,    0.2,    0.2,    0.6,    0.4,    1.3,    1.5,    0.7,    0.3,    0.3,   -0.0,   -0.0,   -0.0,    0.0,   -0.1,   -0.3,   -0.7,   -0.1,   -0.5,   -0.1,    0.0,   -0.2,   -0.0,    0.0,    0.0,   -0.2,   -0.1,   -0.1,   -0.2,    0.2,   -0.0,   -0.0,  999.0,   -0.1,   -0.0,    0.0,   -0.1,   -0.1,    0.1,    0.1,    0.1,   -0.1,    0.2,    0.0,    0.0,   -0.1,    0.1,    0.0,    0.0,   -0.1,   -0.1,    0.1,    0.0,   -0.1,    0.3,   -0.2,    0.3,   -0.0,   -0.1,   -0.1,    0.2,    0.3,    0.0,    0.1,   -0.4,   -0.2,    0.3,   -0.1,    0.0,   -0.0,    0.0,  999.0,  999.0,  999.0,  999.0,  999.0
2013/04/27 10:10,  999.0,  999.0,   -0.1,   -0.1,    0.3,    0.4,    0.4,    0.4,    0.8,    0.5,    1.2,    0.1,    0.2,    0.0,    0.1,    0.1,    0.0,    0.3,    0.4,    0.4,    0.4,   -0.0,    0.1,    0.2,   -0.3,   -0.1,    0.1,    0.0,   -0.0,    0.0,    0.0,   -0.1,   -0.0,    0.2,    0.1,    0.0,   -0.1,    0.2,   -0.1,    0.0,   -0.0,   -0.0,   -0.0,   -0.0,    0.0,    0.2,   -0.1,    0.0,    0.2,    0.1,    0.0,    0.0,   -0.1,    0.1,    0.0,   -0.0,    0.0,   -0.1,   -0.0,   -0.0,    0.1,   -0.0,    0.1,    0.0,    0.2,   -0.0,    0.1,    0.0,    0.4,  999.0,   -0.1,    0.1,    0.3,    0.1,    0.3,  999.0,  999.0,  999.0,  999.0,  999.0
2013/04/27 10:20,  999.0,    0.1,    0.0,    0.2,    0.2,    0.4,    0.5,    0.1,   -0.1,   -0.1,    0.6,    0.1,    0.2,    0.1,    0.2,    0.3,    0.1,    0.2,    0.3,    0.1,    0.2,   -0.1,    0.1,    0.2,   -0.1,    0.1,    0.1,   -0.0,    0.0,   -0.0,   -0.3,   -0.1,   -0.1,   -0.2,   -0.2,    0.1,   -0.1,   -0.0,    0.0,    0.1,   -0.1,   -0.1,   -0.1,   -0.1,   -0.0,    0.0,    0.1,   -0.2,    0.0,   -0.0,   -0.1,    0.1,   -0.0,   -0.1,   -0.0,    0.1,   -0.0,    0.1,    0.0,   -0.0,    0.1,   -0.0,   -0.0,    0.0,    0.1,    0.1,    0.2,    0.1,    0.3,    0.1,   -0.1,    0.0,    0.1,   -0.2,   -0.1,  999.0,  999.0,  999.0,  999.0,  999.0
2013/04/27 10:30,  999.0,  999.0,   -0.0,    0.0,   -0.1,  999.0,    0.1,    0.0,    0.3,    0.0,  999.0,    0.5,  999.0,  999.0,  999.0,  999.0,   -0.0,    0.1,    0.1,    0.0,    0.1,   -0.1,   -0.3,    0.0,   -0.2,    0.0,    0.0,   -0.1,    0.0,    0.1,  999.0,   -0.3,   -0.1,   -0.1,   -0.2,   -0.0,    0.0,   -0.1,    0.1,   -0.1,   -0.0,    0.0,    0.2,   -0.0,   -0.0,    0.0,   -0.1,    0.0,    0.1,    0.0,   -0.0,    0.0,   -0.0,    0.0,   -0.0,    0.1,   -0.1,    0.1,    0.0,   -0.1,    0.2,   -0.0,    0.1,    0.1,    0.2,    0.1,   -0.1,   -0.1,    0.1,   -0.1,    0.0,   -0.1,   -0.0,    0.0,  999.0,  999.0,  999.0,  999.0,  999.0,  999.0
2013/04/27 10:40,  999.0,  999.0,   -0.1,    0.0,    0.0,   -0.0,   -0.0,    0.0,    0.1,    0.0,    0.1,    0.0,    0.1,   -0.1,   -0.1,   -0.1,    0.1,    0.0,   -0.1,   -0.0,    0.1,    0.1,    0.0,   -0.0,    0.0,   -0.1,   -0.0,   -0.1,   -0.0,    0.0,   -0.0,    0.1,   -0.0,    0.0,    0.1,   -0.0,    0.1,    0.1,    0.0,    0.0,   -0.1,   -0.1,    0.0,   -0.1,   -0.1,   -0.1,   -0.0,   -0.0,    0.0,   -0.0,   -0.0,   -0.1,   -0.1,    0.0,    0.1,    0.2,   -0.1,   -0.0,    0.1,   -0.0,    0.0,   -0.1,   -0.1,    0.0,   -0.1,   -0.0,    0.0,    0.0,    0.0,   -0.0,    0.1,   -0.1,    0.0,    0.1,    0.2,  999.0,  999.0,  999.0,  999.0,  999.0
2013/04/27 10:50,  999.0,  999.0,   -0.0,    0.1,    0.1,    0.1,    0.0,   -0.0,   -0.0,    0.0,   -0.0,    0.0,    0.1,   -0.0,    0.1,    0.1,    0.0,   -0.0,   -0.0,   -0.2,   -0.1,    0.0,    0.0,   -0.2,   -0.1,   -0.1,   -0.1,   -0.1,    0.1,    0.2,    0.1,    0.0,    0.2,    0.1,   -0.0,    0.0,   -0.1,   -0.1,   -0.0,   -0.1,   -0.1,    0.0,   -0.0,   -0.0,   -0.0,    0.0,    0.0,   -0.1,   -0.1,   -0.1,   -0.1,    0.1,    0.0,    0.1,    0.0,   -0.1,   -0.1,   -0.1,    0.0,    0.1,    0.1,    0.0,   -0.0,    0.1,   -0.0,    0.0,    0.0,   -0.1,    0.2,   -0.1,    0.1,    0.2,    0.2,    0.0,    0.2,  999.0,  999.0,  999.0,  999.0,  999.0
2013/04/27 11:00,  999.0,  999.0,   -0.0,    0.1,    0.1,   -0.1,  999.0,    0.1,    0.2,    0.4,    0.1,    0.2,    0.2,    0.1,   -0.0,   -0.1,   -0.0,    0.1,    0.1,    0.2,   -0.0,    0.0,   -0.3,   -0.2,    0.1,    0.0,    0.1,   -0.1,   -0.0,   -0.1,    0.1,   -0.0,   -0.0,    0.0,   -0.0,    0.1,   -0.1,   -0.1,    0.0,   -0.0,   -0.0,   -0.1,   -0.0,   -0.0,    0.1,    0.1,   -0.0,   -0.0,   -0.1,    0.1,   -0.0,   -0.0,    0.1,    0.1,   -0.0,   -0.1,   -0.1,    0.0,    0.1,    0.2,    0.0,    0.1,    0.1,   -0.0,   -0.0,    0.2,    0.1,    0.0,    0.1,    0.1,   -0.0,  999.0,   -0.1,   -0.2,   -0.3,  999.0,  999.0,  999.0,  999.0,  999.0
2013/04/27 11:10,  999.0,  999.0,  999.0,   -0.1,    0.9,   -0.0,    0.0,    0.1,    0.0,    0.2,    0.0,   -0.3,   -0.2,  999.0,  999.0,    0.1,    0.1,  999.0,    0.4,    0.2,   -0.4,   -0.4,    9.6,    8.0,    9.5,  999.0,  999.0,    7.8,  999.0,  999.0,   -0.6,   -0.1,   -0.2,   -0.2,   -0.1,    0.0,    0.1,    0.1,    0.0,    0.1,   -0.1,    0.0,    0.1,    0.1,   -0.0,   -0.0,   -0.0,   -0.1,   -0.0,    0.0,    0.1,    0.0,   -0.0,   -0.1,   -0.0,   -0.0,   -0.1,   -0.1,   -0.2,    0.1,    0.0,   -0.1,    0.1,    0.0,   -0.0,    0.1,    0.0,   -0.0,   -0.1,   -0.0,    0.2,   -0.1,   -0.1,   -0.1,   -0.1,  999.0,  999.0,  999.0,  999.0,  999.0
2013/04/27 11:20,  999.0,  999.0,    0.1,   -0.1,    3.6,    4.2,    4.1,    4.1,    6.2,    0.2,    0.5,    0.4,    0.3,    3.3,    2.2,    3.0,  999.0,  999.0,  999.0,  999.0,  999.0,   -0.7,    6.0,   -0.3,  999.0,  999.0,    0.2,    0.4,    0.1,   -0.2,    0.2,   -0.0,   -0.0,   -0.0,   -0.3,   -0.0,   -0.3,   -0.1,   -0.1,   -0.0,   -0.3,   -0.0,    0.2,   -0.0,   -0.1,    0.0,   -0.0,   -0.1,    0.1,    0.0,    0.1,    0.1,    0.2,    0.0,   -0.1,   -0.1,    0.1,   -0.2,   -0.1,    0.1,   -0.1,   -0.2,    0.1,    0.0,   -0.0,    0.1,   -0.0,   -0.1,   -0.1,  999.0,  999.0,  999.0,    0.1,    0.0,  999.0,  999.0,  999.0,  999.0,  999.0,  999.0
2013/04/27 11:30,  999.0,  999.0,    0.1,    0.2,    0.1,    0.1,   -0.0,   -0.1,   -0.0,   -0.1,   -0.5,    0.3,    0.1,    1.3,    3.7,    3.1,    5.4,    0.0,    0.0,  999.0,  999.0,   -0.7,    4.9,  999.0,  999.0,  999.0,  999.0,   -0.5,  999.0,   -0.2,    0.0,    0.1,   -0.0,    0.0,   -0.0,   -0.1,    0.2,   -0.1,   -0.0,   -0.0,   -0.1,   -0.0,    0.1,   -0.0,   -0.0,    0.0,    0.0,    0.2,    0.1,    0.0,    0.1,   -0.1,    0.0,    0.0,    0.2,    0.2,   -0.0,    0.1,    0.2,    0.0,   -0.2,    0.1,   -0.0,    0.1,    0.1,   -0.1,    0.0,    0.1,  999.0,  999.0,   -0.3,   -0.1,  999.0,  999.0,    0.2,  999.0,  999.0,  999.0,  999.0,  999.0
2013/04/27 11:40,  999.0,   -0.1,    0.0,   -0.0,    0.2,    0.1,    0.2,    0.1,    0.1,    0.1,   -0.1,    0.1,   -0.0,    0.0,   -0.2,    0.0,   -0.0,    0.1,   -0.1,   -0.0,  999.0,   -0.2,   -0.2,   -0.5,   -0.4,   -0.1,   -0.1,   -0.1,   -0.2,    0.0,   -0.4,    0.1,   -0.0,   -0.0,    0.1,    0.0,   -0.1,   -0.1,   -0.0,    0.0,   -0.1,   -0.2,   -0.1,   -0.3,    0.0,    0.0,   -0.0,    0.1,    0.0,    0.1,    0.2,    0.1,    0.1,    0.0,   -0.0,   -0.2,   -0.0,    0.0,    0.2,    0.1,   -0.0,    0.1,   -0.0,   -0.1,    0.1,    0.0,   -0.0,    0.1,    0.1,   -0.4,  999.0,  999.0,  999.0,  999.0,  999.0,  999.0,  999.0,  999.0,  999.0,  999.0
2013/04/27 11:50,  999.0,    0.1,    0.3,    0.2,    0.1,    0.3,    0.3,    0.6,    0.2,    0.3,    0.1,   -0.4,   -0.5,    0.2,    0.1,    0.0,   -0.1,   -0.0,   -0.0,   -0.1,   -0.1,    0.1,    0.2,    0.0,   -0.2,    0.3,    0.3,    0.3,   -0.2,    0.4,    0.1,   -0.3,    0.1,    0.0,    0.0,   -0.1,   -0.3,    0.1,    0.1,    0.0,    0.0,    0.0,    0.0,    0.1,    0.1,   -0.1,   -0.0,   -0.0,   -0.0,    0.1,   -0.2,    0.1,    0.2,   -0.2,   -0.2,    0.1,   -0.0,   -0.2,   -0.3,   -0.2,   -0.1,    0.1,    0.0,    0.1,   -0.1,    0.1,    0.0,    0.2,    0.1,   -0.3,    0.1,    0.3,    0.0,    0.1,    0.2,  999.0,  999.0,  999.0,  999.0,  999.0
2013/04/27 12:00,  999.0,   -0.2,    0.0,    0.0,   -0.1,   -0.2,   -0.0,    0.2,   -0.0,    0.2,    0.7,    0.4,    0.3,    0.4,   -0.1,    0.2,    0.1,   -0.0,    0.1,    0.0,   -0.1,   -0.6,   -0.3,   -0.1,   -0.5,    0.1,   -0.2,   -0.2,    0.0,    0.2,   -0.2,   -0.2,   -0.1,   -0.2,    0.0,    0.0,    0.0,    0.0,    0.1,    0.0,   -0.2,   -0.1,   -0.0,   -0.1,   -0.3,   -0.2,   -0.0,    0.1,    0.1,    0.0,    0.1,    0.0,   -0.1,    0.1,    0.0,    0.1,    0.1,   -0.1,    0.0,   -0.1,   -0.2,    0.2,   -0.0,   -0.0,    0.0,    0.1,    0.1,   -0.0,    0.1,    0.3,   -0.1,   -0.1,    0.1,    0.4,    0.1,  999.0,  999.0,  999.0,  999.0,  999.0
2013/04/27 12:10,  999.0,   -0.1,    0.1,    0.1,    0.0,   -0.1,   -0.1,    0.1,   -0.4,   -0.5,   -0.1,   -0.0,   -0.0,    0.1,   -0.0,   -0.2,   -0.1,   -0.1,   -0.1,   -0.1,   -0.1,   -0.1,    0.1,   -0.2,    0.1,    0.2,   -0.0,   -0.2,   -0.5,    0.2,   -0.1,   -0.1,   -0.0,   -0.3,   -0.1,   -0.1,    0.1,    0.1,    0.1,  999.0,   -0.3,   -0.1,    0.1,    0.1,   -0.1,    0.3,   -0.1,   -0.0,   -0.0,    0.0,    0.0,   -0.1,   -0.0,    0.0,   -0.2,    0.1,    0.0,    0.0,    0.0,   -0.1,   -0.2,    0.1,    0.1,   -0.1,   -0.1,    0.1,   -0.0,   -0.1,   -0.0,    0.3,  999.0,  999.0,   -0.0,   -0.2,  999.0,  999.0,  999.0,  999.0,  999.0,  999.0
2013/04/27 12:20,  999.0,   -0.0,   -0.0,    0.1,    0.1,    0.1,    0.2,    0.2,   -0.4,    0.0,   -0.1,   -0.2,   -0.0,    0.0,   -0.1,   -0.1,   -0.0,   -0.1,   -0.2,   -0.1,   -0.2,    0.1,    0.1,   -0.1,    0.3,    0.2,   -0.1,    0.5,    0.3,   -0.2,   -0.2,   -0.4,    0.3,    0.2,   -0.2,   -0.0,    0.2,    0.1,    0.0,   -0.0,   -0.2,   -0.1,   -0.2,    0.0,   -0.0,    0.0,  999.0,   -0.0,   -0.0,    0.0,   -0.1,   -0.1,   -0.1,   -0.1,   -0.1,   -0.0,   -0.1,    0.1,   -0.0,   -0.1,    0.1,   -0.0,   -0.0,   -0.1,    0.1,   -0.3,   -0.2,    0.1,   -0.4,   -0.0,    0.1,   -0.1,   -0.1,  999.0,  999.0,  999.0,  999.0,  999.0,  999.0,  999.0
2013/04/27 12:30,  999.0,   -0.2,    0.1,   -0.0,    0.0,    0.1,    0.6,    0.4,    0.1,    0.2,    0.1,   -0.2,    0.1,    0.4,    0.4,    0.2,    0.1,    0.0,   -0.1,    0.1,    0.1,   -0.1,    0.2,    0.3,    0.3,    0.2,    0.2,    0.5,   -0.0,    0.1,   -0.1,   -0.2,   -0.0,   -0.0,    0.2,    0.2,    0.1,   -0.2,   -0.1,   -0.1,   -0.2,    0.0,   -0.1,    0.1,    0.1,   -0.0,    0.0,    0.0,    0.0,   -0.0,   -0.0,   -0.1,    0.0,   -0.1,    0.1,    0.1,    0.0,   -0.1,    0.1,    0.0,    0.1,    0.0,    0.0,    0.1,    0.1,    0.0,    0.1,   -0.2,  999.0,  999.0,   -0.2,   -0.2,    0.4,    0.2,  999.0,  999.0,  999.0,  999.0,  999.0,  999.0
2013/04/27 12:40,  999.0,   -0.4,   -0.6,   -0.7,   -0.2,    0.2,    0.2,    0.2,   -0.0,    0.1,   -0.2,   -0.0,    0.0,   -0.1,   -0.1,   -0.1,  999.0,    0.0,   -0.1,    0.1,    0.0,    0.0,    0.1,    0.1,    0.0,    0.1,   -0.2,   -0.2,   -0.1,    0.3,    0.5,    0.1,    0.2,   -0.5,   -0.3,   -0.1,    0.1,   -0.2,   -0.0,   -0.1,   -0.1,    0.0,    0.1,   -0.0,   -0.1,   -0.0,   -0.1,   -0.1,   -0.1,   -0.1,   -0.2,    0.1,    0.0,    0.0,   -0.0,    0.1,    0.3,   -0.1,    0.0,    0.1,    0.0,   -0.0,   -0.0,    0.0,    0.1,    0.2,   -0.1,    0.0,  999.0,   -0.1,    0.2,    0.0,    0.2,    0.2,  999.0,  999.0,  999.0,  999.0,  999.0,  999.0
2013/04/27 12:50,  999.0,  999.0,  999.0,   -0.0,   -0.0,    0.1,    0.0,   -0.1,   -0.0,   -0.0,   -0.0,    0.1,    0.1,    0.1,    0.0,   -0.0,    0.1,    0.0,    0.0,    0.0,    0.0,   -0.2,   -0.1,   -0.1,   -0.1,    0.0,    0.1,    0.0,   -0.2,   -0.2,    0.0,   -0.1,   -0.0,   -0.1,    0.1,   -0.0,   -0.0,   -0.1,    0.1,   -0.0,   -0.1,   -0.1,   -0.0,    0.0,   -0.1,    0.1,    0.0,    0.0,    0.1,    0.1,    0.1,   -0.0,   -0.0,    0.0,   -0.0,   -0.1,   -0.1,   -0.1,    0.0,    0.1,    0.0,   -0.0,    0.1,   -0.0,   -0.1,   -0.0,   -0.0,    0.1,    0.0,   -0.1,  999.0,    0.1,   -0.2,   -0.4,   -0.3,  999.0,  999.0,  999.0,  999.0,  999.0
2013/04/27 13:00,  999.0,  999.0,  999.0,    0.1,    0.0,    0.2,    0.1,   -0.1,    0.0,    0.1,   -0.0,    0.0,    0.2,    0.2,    0.1,   -0.2,   -0.1,   -0.1,   -0.1,   -0.1,   -0.0,   -0.1,    0.2,   -0.7,   -0.1,    0.0,    0.1,    0.1,    0.1,    0.0,   -0.4,   -0.1,   -0.1,   -0.1,    0.1,    0.1,    0.0,   -0.0,    0.2,    0.1,   -0.1,    0.0,    0.0,   -0.1,    0.0,    0.1,    0.3,   -0.0,   -0.0,   -0.0,   -0.0,   -0.2,   -0.3,   -0.1,   -0.1,    0.1,    0.2,    0.2,    0.1,   -0.0,   -0.1,   -0.0,    0.0,   -0.2,    0.0,   -0.2,    0.0,    0.0,    0.1,    0.2,    0.1,  999.0,   -0.1,   -0.0,   -0.1,  999.0,  999.0,  999.0,  999.0,  999.0
2013/04/27 13:10,  999.0,    0.2,   -0.4,    0.1,    0.2,   -0.1,    0.5,    0.2,    0.2,   -0.0,   -0.4,   -0.4,    0.1,    0.3,   -0.0,    0.0,   -0.1,   -0.1,    0.2,    0.1,    0.3,    0.4,    0.5,    0.4,    0.1,    0.1,    0.0,   -0.0,    0.1,    0.1,    0.2,    0.1,   -0.1,   -0.0,    0.1,    0.0,   -0.0,   -0.0,   -0.1,   -0.1,   -0.3,   -0.2,   -0.0,   -0.1,   -0.0,   -0.1,    0.0,    0.0,    0.0,   -0.0,    0.2,    0.0,   -0.1,   -0.2,   -0.0,   -0.2,    0.1,   -0.1,    0.2,   -0.2,    0.1,   -0.0,    0.1,   -0.1,   -0.1,    0.0,    0.1,   -0.0,   -0.0,   -0.1,   -0.5,    0.1,   -0.1,    0.1,    0.0,  999.0,   -0.1,  999.0,  999.0,  999.0
2013/04/27 13:20,  999.0,  999.0,    0.1,    0.3,    0.3,    0.0,    0.3,    0.4,   -0.2,   -0.1,   -0.2,    0.1,    0.1,    0.2,   -0.1,   -0.1,    0.1,    0.1,    0.1,    0.0,    0.1,   -0.2,    0.1,   -0.1,   -0.0,    0.4,    0.1,    0.3,    0.2,    0.3,    0.1,    0.2,    0.1,    0.2,   -0.0,   -0.1,    0.0,   -0.2,   -0.1,   -0.0,   -0.1,    0.0,    0.0,   -0.2,   -0.1,   -0.1,   -0.1,    0.0,    0.0,    0.2,    0.1,    0.0,    0.0,   -0.0,    0.0,    0.1,    0.2,    0.1,   -0.1,   -0.2,   -0.1,   -0.0,    0.1,    0.0,    0.2,    0.0,   -0.1,   -0.1,   -0.2,  999.0,    0.1,   -0.1,   -0.1,   -0.1,   -0.1,  999.0,  999.0,  999.0,  999.0,  999.0
2013/04/27 13:30,  999.0,   -0.2,   -0.4,    0.1,    0.1,   -0.0,    0.0,   -0.1,   -0.5,   -0.1,    0.2,   -0.2,    0.2,   -0.0,    0.1,   -0.1,   -0.2,   -0.2,   -0.1,    0.0,   -0.0,   -0.3,   -0.3,   -0.4,  999.0,   -0.3,   -0.1,   -0.4,    0.0,   -0.0,   -0.1,    0.1,    0.0,   -0.0,    0.1,    0.3,    0.2,    0.1,   -0.2,   -0.1,   -0.1,   -0.1,   -0.0,   -0.1,   -0.1,    0.1,   -0.1,   -0.1,    0.0,    0.0,   -0.1,   -0.1,   -0.2,   -0.2,    0.2,    0.2,    0.1,   -0.1,   -0.0,   -0.1,    0.0,    0.0,   -0.1,    0.1,    0.1,   -0.0,    0.0,   -0.2,   -0.0,    0.2,   -0.1,   -0.1,   -0.1,    0.1,    0.1,  999.0,  999.0,  999.0,  999.0,  999.0
2013/04/27 13:40,  999.0,    0.0,    0.3,    0.0,    0.2,    0.2,    0.0,   -0.3,   -0.1,    0.2,    0.4,    0.2,    0.2,    0.1,    0.0,   -0.0,   -0.0,   -0.1,   -0.0,    0.0,    0.1,    0.1,   -0.1,    0.3,    0.4,    0.7,   -0.0,    0.2,    0.0,    0.0,   -0.0,    0.0,    0.1,    0.2,    0.0,   -0.1,    0.2,   -0.1,   -0.2,   -0.1,   -0.1,   -0.2,   -0.1,    0.1,   -0.1,    0.0,   -0.2,   -0.0,    0.1,    0.1,   -0.1,    0.1,   -0.1,   -0.1,   -0.1,    0.1,    0.2,   -0.1,   -0.1,    0.1,    0.1,    0.1,   -0.1,    0.0,  999.0,   -0.0,   -0.0,    0.1,    0.0,   -0.2,  999.0,    0.0,   -0.1,  999.0,   -0.1,  999.0,    0.2,  999.0,  999.0,  999.0
2013/04/27 13:50,  999.0,   -0.0,   -0.0,    0.0,   -0.0,    0.1,    0.1,    0.1,    0.2,    0.4,    0.4,    0.1,    0.2,    0.3,    0.3,   -0.1,   -0.0,    0.1,    0.0,   -0.1,    0.3,    0.5,    0.1,   -0.3,   -0.0,    0.0,   -0.2,   -0.2,   -0.2,    0.0,   -0.1,    0.0,   -0.0,    0.2,   -0.1,    0.1,   -0.0,    0.1,    0.0,   -0.1,   -0.0,   -0.2,    0.1,    0.0,   -0.1,   -0.1,   -0.0,   -0.0,    0.1,    0.2,    0.0,   -0.0,    0.1,   -0.1,   -0.0,   -0.1,   -0.0,    0.0,    0.2,    0.1,   -0.0,   -0.1,   -0.2,    0.1,    0.3,    0.2,   -0.0,    0.1,   -0.0,    0.0,    0.0,    0.3,    0.0,    0.1,    0.1,    0.3,  999.0,  999.0,  999.0,  999.0
2013/04/27 14:00,  999.0,  999.0,   -0.0,   -0.1,    2.3,    0.1,    0.0,   -0.2,    1.2,    1.2,    0.3,    0.1,    0.4,    0.1,    0.1,    0.1,   -0.0,   -0.2,   -0.2,   -0.1,    0.3,    0.1,    0.2,    0.4,    0.6,    0.5,    0.5,   -0.1,   -0.0,   -0.4,   -0.1,   -0.0,    0.0,   -0.0,   -0.0,    0.1,   -0.0,    0.0,   -0.0,   -0.1,   -0.1,   -0.0,    0.2,    0.1,    0.0,   -0.0,    0.2,    0.0,   -0.1,    0.2,   -0.1,   -0.2,   -0.1,   -0.2,    0.0,    0.1,    0.0,   -0.1,    0.1,   -0.1,   -0.0,   -0.0,   -0.1,   -0.4,    0.1,   -0.0,   -0.0,    0.1,   -0.1,   -0.2,   -0.3,   -0.1,   -0.1,   -0.1,    0.0,   -0.1,   -0.2,  999.0,  999.0,  999.0
2013/04/27 14:10,  999.0,  999.0,    0.3,    0.1,    0.1,    0.3,    0.2,   -0.0,    0.4,    0.4,    0.4,    0.2,    0.1,    0.4,    0.1,   -0.0,    0.3,    0.1,    0.2,    0.2,    0.7,    0.7,    0.7,    0.8,    0.3,    0.3,    0.5,    0.2,    0.0,    0.1,   -0.1,   -0.1,    0.1,   -0.1,    0.0,   -0.1,    0.1,    0.1,   -0.1,    0.1,    0.1,   -0.0,    0.2,    0.1,   -0.1,    0.0,    0.1,   -0.0,    0.1,   -0.1,   -0.0,   -0.0,   -0.1,   -0.1,    0.1,    0.1,    0.0,    0.3,   -0.1,    0.0,    0.1,   -0.1,   -0.0,    0.1,   -0.2,    0.0,    0.1,    0.0,    0.1,   -0.1,    0.1,    0.2,  999.0,    0.7,    0.0,  999.0,  999.0,  999.0,  999.0,  999.0
2013/04/27 14:20,  999.0,  999.0,   -0.0,    0.0,   -0.1,   -0.1,    0.1,    0.1,   -0.0,    0.1,   -0.0,  999.0,  999.0,    0.0,    0.1,  999.0,    0.0,    0.2,    0.3,    0.1,    0.1,   -0.0,    0.1,    0.1,    0.1,    0.1,   -0.1,   -0.1,   -0.1,    0.1,    0.1,    0.1,   -0.1,   -0.0,    0.1,    0.1,   -0.0,   -0.1,   -0.1,   -0.1,   -0.0,    0.0,    0.1,    0.0,    0.1,    0.1,   -0.2,   -0.1,    0.0,    0.1,   -0.0,   -0.1,    0.0,   -0.0,   -0.0,    0.1,   -0.0,    0.0,   -0.2,   -0.3,    0.0,    0.0,   -0.1,    0.1,    0.0,    0.0,   -0.1,   -0.0,   -0.1,   -0.0,   -0.2,   -0.4,    0.1,   -0.2,    0.0,    0.3,  999.0,  999.0,  999.0,  999.0
2013/04/27 14:30,  999.0,  999.0,    0.2,    0.3,   -0.1,   -0.1,    0.0,    0.0,   -0.1,   -0.0,   -0.0,   -0.2,   -0.0,    0.0,    0.1,    0.1,    0.0,   -0.0,   -0.0,   -0.1,   -0.1,   -0.0,    0.0,    0.2,   -0.0,    0.0,    0.0,   -0.3,    0.1,   -0.0,    0.0,    0.1,    0.0,   -0.0,    0.0,   -0.0,   -0.0,   -0.0,    0.1,   -0.0,   -0.1,   -0.2,   -0.2,   -0.2,    0.1,   -0.0,   -0.0,   -0.0,    0.0,   -0.0,    0.1,    0.0,   -0.0,   -0.1,   -0.1,   -0.1,   -0.0,    0.0,   -0.0,    0.0,   -0.1,   -0.0,    0.1,    0.0,   -0.1,   -0.1,   -0.0,    0.0,   -0.2,   -0.2,    0.2,   -0.0,   -0.0,   -0.1,   -0.0,    0.2,  999.0,  999.0,  999.0,  999.0
2013/04/27 14:40,  999.0,  999.0,    0.2,   -0.0,   -0.1,    0.1,    0.1,    0.0,    0.0,    0.0,    0.0,    0.0,    0.0,    0.0,    0.0,    0.0,    0.1,   -0.0,   -0.1,    0.1,    0.0,   -0.0,    0.0,   -0.0,   -0.0,    0.0,    0.1,    0.0,   -0.1,   -0.1,    0.0,    0.1,   -0.0,   -0.1,   -0.1,   -0.0,    0.0,   -0.0,   -0.0,   -0.0,    0.0,    0.0,   -0.0,    0.0,   -0.1,   -0.1,   -0.0,   -0.0,    0.0,    0.1,    0.3,    0.1,   -0.0,    0.1,    0.0,   -0.2,    0.1,    0.0,    0.1,   -0.1,    0.1,    0.1,    0.0,    0.1,    0.0,   -0.1,   -0.1,   -0.0,    0.2,    0.2,   -0.0,   -0.1,   -0.2,   -0.3,    0.1,  999.0,  999.0,  999.0,  999.0,  999.0
2013/04/27 14:50,  999.0,  999.0,   -0.1,   -0.1,    0.0,   -0.0,    0.0,   -0.0,   -0.0,    0.1,    0.1,    0.1,    0.1,    0.1,   -0.1,  999.0,   -0.3,  999.0,   -0.1,   -0.0,   -0.0,   -0.2,    0.0,   -0.1,   -0.1,   -0.1,   -0.0,    0.1,    0.0,   -0.0,    0.0,    0.0,   -0.0,    0.1,    0.0,    0.0,    0.1,    0.1,    0.0,    0.0,    0.0,   -0.2,   -0.1,   -0.1,   -0.1,    0.0,    0.0,   -0.0,    0.1,    0.1,    0.2,    0.1,   -0.0,   -0.0,   -0.0,    0.1,   -0.2,   -0.2,    0.0,   -0.2,   -0.1,   -0.1,    0.1,    0.1,   -0.1,    0.0,    0.1,    0.0,    0.0,    0.1,   -0.0,   -0.0,    0.1,   -0.0,    0.1,    0.1,   -0.3,  999.0,  999.0,  999.0
2013/04/27 15:00,  999.0,  999.0,   -0.2,    0.1,  999.0,   -0.0,   -0.1,  999.0,  999.0,    0.1,    0.0,  999.0,  999.0,   -0.1,  999.0,   -0.0,  999.0,   -0.1,   -0.1,    0.0,   -0.1,    0.0,    0.0,    0.0,   -0.0,   -0.0,   -0.1,   -0.0,   -0.1,   -0.0,    0.0,    0.1,    0.1,   -0.0,    0.1,   -0.0,   -0.1,    0.0,    0.1,   -0.1,    0.2,   -0.1,    0.0,    0.1,   -0.0,   -0.0,   -0.1,    0.0,   -0.1,    0.0,   -0.2,    0.0,    0.1,    0.1,    0.0,    0.1,    0.1,    0.0,    0.0,    0.1,    0.1,   -0.0,    0.1,   -0.0,  999.0,   -0.0,    0.1,    0.1,   -0.0,   -0.2,    0.0,    0.1,    0.0,   -0.1,   -0.1,  999.0,  999.0,  999.0,  999.0,  999.0
2013/04/27 15:10,  999.0,  999.0,    0.1,    0.0,    0.1,   -0.0,    0.0,   -0.0,    0.1,    0.2,    0.1,    0.0,   -0.0,    0.0,   -0.0,    0.2,    0.0,   -0.1,    0.1,   -0.0,    0.1,   -0.0,    0.0,   -0.1,   -0.0,   -0.0,    0.0,   -0.1,   -0.0,   -0.0,   -0.0,   -0.1,   -0.0,    0.0,   -0.0,   -0.0,    0.1,    0.0,    0.1,    0.1,    0.1,    0.1,   -0.0,    0.0,    0.0,    0.1,   -0.1,   -0.1,    0.1,   -0.1,    0.0,   -0.1,   -0.1,   -0.1,   -0.0,   -0.1,   -0.0,    0.1,    0.0,    0.4,    0.1,   -0.1,   -0.0,   -0.0,  999.0,   -0.0,   -0.0,   -0.0,    0.0,   -0.0,   -0.1,    0.1,   -0.2,  999.0,    0.1,    0.1,  999.0,  999.0,  999.0,  999.0
2013/04/27 15:20,  999.0,  999.0,   -0.1,    0.0,    0.1,   -0.0,   -0.0,   -0.1,    0.0,    0.1,   -0.0,    0.0,    0.0,   -0.1,   -0.0,    0.1,  999.0,    0.1,    0.1,    0.1,  999.0,   -0.1,    0.0,    0.0,    0.0,   -0.0,    0.2,   -0.0,    0.0,   -0.0,    0.1,   -0.1,    0.0,   -0.0,   -0.0,   -0.1,   -0.0,    0.1,   -0.1,   -0.2,   -0.1,   -0.1,    0.0,    0.1,    0.0,   -0.0,   -0.0,    0.0,   -0.1,    0.1,    0.0,    0.2,    0.1,   -0.0,    0.1,    0.0,   -0.0,    0.1,    0.1,   -0.0,   -0.1,   -0.0,   -0.1,    0.1,   -0.0,   -0.0,    0.1,   -0.1,   -0.0,    0.0,   -0.0,   -0.1,  999.0,    0.0,   -0.1,   -0.0,  999.0,  999.0,  999.0,  999.0
2013/04/27 15:30,  999.0,  999.0,    0.0,    0.0,    0.1,    0.0,    0.1,    0.0,    0.1,   -0.1,   -0.0,    0.1,   -0.1,    0.0,    0.0,   -0.0,    0.0,    0.0,    0.1,    0.0,  999.0,   -0.0,   -0.0,    0.1,    0.1,   -0.0,    0.1,   -0.1,   -0.0,   -0.1,   -0.0,    0.0,    0.0,   -0.0,   -0.1,   -0.0,    0.1,   -0.0,   -0.0,   -0.0,   -0.1,    0.1,   -0.1,   -0.1,    0.1,   -0.0,   -0.0,   -0.0,   -0.1,    0.0,    0.1,   -0.2,    0.2,    0.1,   -0.0,    0.1,    0.0,    0.0,   -0.3,   -0.0,   -0.0,   -0.1,   -0.0,   -0.1,   -0.2,   -0.1,    0.2,    0.2,   -0.0,   -0.1,   -0.1,    0.0,   -0.4,    0.1,   -0.1,   -0.1,  999.0,  999.0,  999.0,  999.0
2013/04/27 15:40,  999.0,  999.0,    0.2,    0.1,   -0.0,   -0.0,    0.1,    0.0,    0.1,   -0.0,  999.0,   -0.0,   -0.0,   -0.1,    0.1,  999.0,    0.1,    0.2,   -0.0,   -0.2,   -0.1,   -0.0,   -0.0,   -0.0,    0.1,    0.0,    0.1,   -0.1,   -0.0,   -0.0,   -0.0,    0.0,    0.1,    0.0,   -0.1,    0.0,   -0.0,    0.0,    0.0,   -0.0,    0.1,   -0.1,   -0.0,   -0.0,   -0.1,   -0.0,    0.1,    0.0,   -0.0,   -0.1,   -0.1,   -0.0,    0.2,    0.0,    0.1,   -0.0,   -0.0,    0.0,   -0.0,    0.0,    0.0,    0.1,   -0.1,    0.0,   -0.1,   -0.1,   -0.0,   -0.2,    0.0,   -0.1,   -0.1,   -0.0,    0.0,  999.0,   -0.0,   -0.4,   -0.1,  999.0,  999.0,  999.0
2013/04/27 15:50,  999.0,   -0.0,   -0.1,    0.2,    0.2,    0.0,    0.1,    0.1,    0.1,    0.3,    0.1,   -0.4,   -0.0,    0.1,    0.2,    0.1,    0.1,   -0.0,   -0.0,   -0.0,    0.0,    0.0,   -0.0,    0.0,   -0.0,    0.0,   -0.0,   -0.0,    0.0,    0.1,   -0.1,   -0.1,    0.0,    0.1,    0.1,    0.0,   -0.1,   -0.0,   -0.0,    0.0,   -0.0,   -0.1,   -0.1,    0.1,   -0.1,   -0.1,  999.0,    0.0,    0.0,   -0.1,   -0.0,   -0.1,    0.2,   -0.1,    0.1,    0.1,   -0.1,    0.0,   -0.0,   -0.0,   -0.2,   -0.1,   -0.2,   -0.1,   -0.0,    0.0,   -0.0,   -0.1,    0.0,    0.1,    0.0,   -0.1,    0.1,    0.1,    0.1,    0.0,    0.5,  999.0,  999.0,   -0.1
2013/04/27 16:00,  999.0,  999.0,    0.1,   -0.1,  999.0,   -0.1,   -0.2,    0.0,    0.2,    0.3,    0.1,   -0.0,    0.1,   -0.1,    0.1,   -0.1,  999.0,    0.0,    0.0,  999.0,    0.0,   -0.0,  999.0,   -0.0,   -0.1,   -0.1,   -0.1,    0.0,   -0.1,   -0.1,   -0.1,   -0.1,   -0.1,   -0.0,    0.1,   -0.0,    0.1,    0.1,   -0.1,   -0.1,   -0.2,   -0.1,   -0.1,    0.1,   -0.0,    0.1,    0.0,    0.0,    0.1,    0.1,    0.0,    0.1,    0.1,   -0.0,   -0.1,   -0.0,    0.2,   -0.3,   -0.0,    0.1,    0.2,   -0.1,   -0.0,   -0.0,   -0.0,    0.0,    0.0,    0.1,    0.0,    0.0,   -0.1,    0.0,   -0.1,   -0.0,   -0.1,  999.0,    0.3,  999.0,  999.0,   -0.3
2013/04/27 16:10,  999.0,    0.1,   -0.1,   -0.2,   -0.1,    0.0,    0.0,   -0.1,   -0.1,   -0.1,   -0.1,   -0.0,   -0.0,    0.0,   -0.2,   -0.0,    0.0,   -0.1,    0.0,    0.1,   -0.1,   -0.1,   -0.1,   -0.1,   -0.2,    0.0,   -0.1,    0.0,   -0.1,    0.0,    0.0,   -0.2,   -0.1,   -0.0,    0.0,    0.1,   -0.0,    0.1,    0.0,   -0.1,   -0.0,   -0.0,   -0.0,   -0.1,   -0.1,    0.0,   -0.1,    0.0,   -0.0,   -0.0,   -0.0,    0.0,    0.1,   -0.0,   -0.1,   -0.0,    0.0,    0.2,   -0.1,    0.1,    0.0,   -0.1,    0.0,   -0.2,    0.1,   -0.0,   -0.1,   -0.1,    0.0,   -0.1,   -0.1,   -0.0,    0.1,   -0.1,   -0.1,  999.0,   -0.4,  999.0,  999.0,   -0.0
2013/04/27 16:20,  999.0,    0.2,    0.1,    0.1,    0.1,   -0.1,    0.0,   -0.0,    0.2,  999.0,    0.1,   -0.1,   -0.1,   -0.1,   -0.0,  999.0,    0.0,   -0.0,   -0.0,    0.0,    0.1,    0.0,    0.1,   -0.0,    0.0,   -0.0,    0.0,    0.0,    0.0,    0.1,   -0.2,   -0.1,   -0.1,    0.0,   -0.1,   -0.1,   -0.0,    0.1,   -0.0,   -0.0,    0.0,    0.0,   -0.0,    0.0,    0.0,    0.1,    0.1,   -0.1,   -0.0,    0.0,   -0.1,   -0.0,   -0.1,   -0.1,   -0.1,   -0.1,    0.0,   -0.1,    0.1,    0.3,   -0.0,    0.0,   -0.1,    0.1,   -0.0,    0.1,    0.0,    0.1,   -0.1,   -0.5,   -0.0,    0.2,   -0.0,    0.1,   -0.0,  999.0,   -0.3,  999.0,  999.0,  999.0
2013/04/27 16:30,  999.0,   -0.0,    0.1,    0.2,   -0.1,   -0.0,    0.2,    0.2,    0.1,    0.0,    0.1,    0.1,   -0.1,   -0.1,  999.0,  999.0,   -0.2,  999.0,  999.0,   -0.0,   -0.1,   -0.0,   -0.0,    0.0,   -0.1,   -0.0,   -0.0,   -0.0,    0.0,    0.1,    0.2,   -0.1,   -0.1,   -0.1,    0.0,    0.1,   -0.0,    0.0,    0.1,    0.1,   -0.1,   -0.1,   -0.0,   -0.0,   -0.1,    0.0,    0.1,   -0.0,   -0.0,   -0.1,    0.0,   -0.0,   -0.0,    0.0,    0.1,   -0.1,   -0.0,   -0.1,    0.1,   -0.1,   -0.0,   -0.1,   -0.0,    0.0,    0.1,    0.0,   -0.1,    0.1,   -0.3,    0.1,   -0.2,   -0.0,    0.2,    0.1,    0.1,   -0.4,  999.0,  999.0,  999.0,    0.3
2013/04/27 16:40,  999.0,  999.0,   -0.4,    0.3,    0.2,    0.2,    0.2,    0.3,    0.2,    0.3,    0.6,    0.3,    0.1,   -0.0,    0.2,    0.2,  999.0,    0.1,   -0.0,  999.0,  999.0,    0.1,    0.1,    0.2,   -0.1,    0.3,    0.0,    0.1,    0.0,    0.0,   -0.0,    0.0,    0.1,    0.1,   -0.0,    0.0,    0.0,    0.0,   -0.0,   -0.1,   -0.1,    0.0,    0.0,    0.1,    0.1,   -0.0,   -0.1,   -0.0,   -0.1,   -0.1,   -0.0,    0.0,   -0.0,    0.1,   -0.1,   -0.1,    0.0,   -0.1,    0.2,   -0.2,   -0.1,    0.1,   -0.0,    0.0,    0.0,   -0.1,   -0.1,   -0.1,   -0.0,   -0.2,   -0.0,   -0.1,   -0.0,   -0.1,    0.1,  999.0,  999.0,  999.0,  999.0,  999.0
2013/04/27 16:50,  999.0,  999.0,    0.1,    0.0,    0.1,   -0.1,    0.1,    0.1,    0.3,    0.3,   -0.0,   -0.2,    0.4,    0.1,    0.1,    0.1,    0.1,    0.1,   -0.0,    0.1,    0.0,    0.2,    0.0,    0.0,   -0.2,   -0.1,    0.0,   -0.0,    0.1,    0.1,    0.1,   -0.0,   -0.2,    0.1,   -0.1,    0.1,   -0.0,   -0.0,    0.0,    0.0,   -0.1,   -0.1,   -0.0,    0.1,    0.1,   -0.0,   -0.1,   -0.0,    0.0,    0.1,    0.0,    0.1,    0.0,   -0.0,   -0.1,    0.1,    0.2,    0.1,   -0.0,    0.2,    0.0,    0.0,    0.1,   -0.2,   -0.1,    0.0,    0.1,   -0.0,    0.1,   -0.2,    0.0,   -0.2,    0.2,   -0.1,    0.2,    0.4,  999.0,  999.0,  999.0,  999.0
2013/04/27 17:00,  999.0,  999.0,    0.0,    0.2,    0.2,    0.1,    0.2,    0.2,    0.2,    0.1,    0.3,   -0.2,    0.3,    0.2,    0.0,    0.0,    0.0,    0.0,    0.0,   -0.1,   -0.0,    0.0,   -0.0,   -0.0,    0.0,   -0.0,   -0.1,   -0.0,   -0.0,   -0.2,   -0.2,   -0.2,   -0.0,   -0.0,    0.1,   -0.0,    0.0,   -0.1,   -0.0,    0.1,   -0.0,   -0.2,   -0.0,   -0.1,   -0.1,    0.0,   -0.2,   -0.1,    0.0,    0.0,    0.1,   -0.1,   -0.1,    0.0,    0.0,   -0.2,    0.2,    0.0,    0.1,   -0.1,   -0.1,    0.1,    0.0,   -0.0,   -0.1,   -0.0,   -0.0,    0.0,   -0.1,    0.3,   -0.1,   -0.2,    0.1,  999.0,    0.1,    0.2,  999.0,  999.0,  999.0,  999.0
2013/04/27 17:10,  999.0,  999.0,    0.1,    0.0,    0.1,    0.1,    0.3,    0.8,    0.3,    0.6,    1.0,    0.8,   -0.1,    0.4,    0.3,    0.4,    0.3,    0.1,    0.1,    0.0,   -0.2,   -0.1,    0.1,   -0.1,   -0.1,   -0.1,    0.0,    0.0,   -0.2,    0.2,   -0.1,   -0.1,   -0.1,   -0.1,    0.1,   -0.1,   -0.1,   -0.1,   -0.1,   -0.0,   -0.2,   -0.2,   -0.1,   -0.1,   -0.1,   -0.2,   -0.0,   -0.1,   -0.1,    0.1,   -0.0,   -0.1,   -0.1,    0.1,    0.1,    0.0,   -0.2,   -0.2,   -0.0,    0.0,   -0.0,   -0.0,    0.1,    0.0,  999.0,   -0.1,   -0.1,    0.1,    0.0,    0.1,  999.0,    0.2,    0.0,   -0.2,   -0.0,    0.0,  999.0,  999.0,  999.0,   -0.0
2013/04/27 17:20,  999.0,   -0.2,   -0.0,   -0.1,    0.2,    0.1,    0.2,    0.5,    0.6,    0.2,    0.0,   -0.0,   -0.0,   -0.0,    0.3,    0.2,    0.2,   -0.1,   -0.2,   -0.1,   -0.2,   -0.2,   -0.2,    0.1,    0.0,   -0.0,   -0.0,   -0.0,   -0.0,    0.1,   -0.0,   -0.1,    0.2,   -0.0,    0.1,    0.3,    0.0,    0.0,   -0.1,   -0.2,   -0.2,   -0.1,    0.0,    0.0,    0.0,    0.0,    0.1,    0.0,   -0.1,   -0.1,   -0.0,   -0.1,    0.0,   -0.0,   -0.0,   -0.1,   -0.0,   -0.1,    0.1,   -0.0,   -0.1,   -0.1,    0.1,  999.0,   -0.0,   -0.0,   -0.1,   -0.0,   -0.1,    0.1,    0.3,  999.0,    0.1,    0.1,    0.0,  999.0,  999.0,  999.0,  999.0,  999.0
2013/04/27 17:30,  999.0,  999.0,    0.1,   -0.4,   -0.0,    0.0,    0.2,    0.1,   -0.1,   -0.3,   -0.1,    0.1,   -0.2,   -0.6,   -0.2,  999.0,   -0.2,   -0.3,   -0.2,    0.0,  999.0,   -0.7,   -0.4,  999.0,    0.1,   -0.2,   -0.2,    0.0,    0.2,    0.2,   -0.1,   -0.2,   -0.1,   -0.0,    0.1,    0.0,    0.1,    0.0,   -0.0,    0.0,   -0.1,   -0.1,    0.0,   -0.0,   -0.0,    0.0,    0.0,    0.0,    0.1,    0.0,   -0.0,   -0.1,    0.0,    0.0,    0.1,    0.0,    0.1,    0.1,    0.1,   -0.1,   -0.1,   -0.0,    0.1,    0.0,   -0.1,    0.1,   -0.0,   -0.0,   -0.1,    0.2,    0.0,    0.0,   -0.0,    0.0,    0.0,  999.0,  999.0,  999.0,  999.0,   -0.1
2013/04/27 17:40,  999.0,    0.2,   -0.3,   -0.0,  999.0,  999.0,  999.0,  999.0,   -0.1,   -0.3,   -0.2,   -0.1,   -0.0,   -0.3,   -0.2,    0.1,   -0.0,   -0.1,   -0.1,   -0.4,    0.3,   -0.3,   -0.2,    0.1,   -0.2,   -0.1,   -0.1,   -0.1,    0.2,   -0.0,   -0.2,    0.2,    0.0,    0.1,    0.1,    0.0,   -0.0,   -0.1,   -0.0,   -0.1,   -0.1,   -0.1,   -0.1,    0.1,    0.1,    0.1,    0.0,   -0.0,   -0.1,    0.0,    0.0,    0.1,    0.0,   -0.0,    0.0,   -0.1,    0.0,    0.1,    0.1,   -0.0,   -0.1,   -0.1,   -0.0,    0.0,   -0.1,    0.1,    0.0,    0.1,    0.2,    0.5,   -0.0,    0.0,    0.0,    0.0,   -0.0,    0.2,   -0.1,  999.0,  999.0,  999.0
2013/04/27 17:50,  999.0,  999.0,    0.1,  999.0,  999.0,  999.0,  999.0,  999.0,   -0.2,   -0.4,   -0.4,   -0.3,   -0.6,   -0.1,    0.1,    0.1,    0.0,   -0.1,   -0.0,   -0.1,   -0.1,   -0.3,   -0.1,    0.0,    0.0,   -0.0,   -0.1,    0.9,    0.4,    1.6,    0.9,    0.3,    0.5,    0.2,    0.1,    0.1,   -0.0,   -0.1,    0.0,   -0.2,   -0.1,   -0.1,   -0.1,    0.0,    0.0,    0.0,    0.0,   -0.1,   -0.1,    0.0,    0.0,   -0.0,   -0.1,   -0.1,    0.0,    0.0,   -0.0,    0.0,    0.1,    0.0,    0.0,    0.0,   -0.0,    0.0,    0.0,   -0.0,   -0.0,   -0.1,   -0.0,   -0.1,    0.4,    0.0,   -0.0,    0.1,   -0.0,  999.0,  999.0,  999.0,  999.0,   -0.1
2013/04/27 18:00,  999.0,    0.1,    0.0,    0.0,    0.0,  999.0,  999.0,  999.0,  999.0,    0.4,    0.1,    0.1,   -0.8,   -0.5,   -0.2,   -0.2,   -0.2,   -0.0,   -0.0,    0.1,   -0.0,    0.2,    0.4,    0.2,   -0.1,    0.4,    0.6,    0.3,    0.4,    0.4,    0.1,    0.1,    0.0,    0.1,   -0.1,    0.0,   -0.1,    0.0,   -0.0,   -0.1,   -0.2,   -0.0,   -0.1,   -0.0,   -0.1,   -0.1,   -0.1,    0.0,    0.0,    0.1,    0.0,   -0.1,    0.1,   -0.1,   -0.1,    0.0,    0.0,    0.0,    0.0,    0.1,    0.1,    0.0,    0.0,   -0.0,    0.1,    0.1,    0.2,    0.0,   -0.0,   -0.1,   -0.0,   -0.0,   -0.0,    0.1,    0.1,  999.0,  999.0,  999.0,  999.0,  999.0
2013/04/27 18:10,  999.0,    0.0,   -0.4,   -0.0,    0.0,    0.0,   -0.4,   -0.1,    0.1,    0.2,   -0.2,    0.1,    0.4,    0.2,    0.1,   -0.1,    0.0,    0.2,    0.2,    0.1,    0.0,    0.9,    0.8,    0.3,    1.0,    1.5,    1.5,    0.6,    0.4,    0.0,    0.1,   -0.1,    0.2,    0.0,   -0.0,   -0.0,    0.1,   -0.2,    0.0,    0.1,   -0.2,   -0.3,   -0.2,   -0.0,    0.0,   -0.0,   -0.1,   -0.0,    0.0,    0.0,    0.1,    0.2,    0.1,   -0.0,   -0.0,   -0.0,   -0.1,   -0.0,   -0.1,   -0.0,    0.0,    0.1,    0.0,  999.0,  999.0,    0.0,    0.0,    0.1,   -0.1,  999.0,   -0.1,   -0.1,   -0.0,    0.1,    0.1,  999.0,  999.0,  999.0,  999.0,    0.1
2013/04/27 18:20,  999.0,  999.0,   -0.1,  999.0,  999.0,  999.0,   -0.6,    0.3,   -0.0,   -0.1,   -0.5,    0.0,    0.5,    0.6,   -0.5,   -0.3,   -0.6,   -0.1,    0.3,   -0.2,   -0.3,  999.0,  999.0,   -0.6,  999.0,    1.9,    0.3,    0.6,    0.4,    0.2,    0.1,    0.1,    0.1,    0.1,   -0.2,   -0.2,    0.0,   -0.1,   -0.1,   -0.2,   -0.6,   -0.1,   -0.0,   -0.0,    0.0,   -0.0,   -0.1,   -0.1,   -0.0,   -0.0,   -0.0,   -0.0,   -0.1,   -0.1,    0.0,   -0.0,   -0.1,    0.0,    0.1,    0.1,    0.0,    0.0,    0.1,    0.0,   -0.0,   -0.0,    0.0,    0.0,    0.1,   -0.1,  999.0,  999.0,    0.1,    0.2,  999.0,  999.0,  999.0,  999.0,  999.0,  999.0
2013/04/27 18:30,  999.0,    0.1,    0.1,    0.2,    0.1,    0.3,  999.0,  999.0,    0.2,   -0.3,   -0.8,   -0.7,   -0.7,   -0.6,   -0.3,   -0.4,   -0.1,    0.1,    0.1,   -0.0,    0.2,    0.1,    0.6,    1.0,    2.0,    1.7,    1.6,    1.4,    0.9,    1.4,    1.1,   -0.0,    0.6,    0.1,    0.5,    0.1,    0.2,    0.1,    0.2,    0.0,   -0.4,   -0.2,    0.1,    0.1,    0.0,   -0.0,    0.2,    0.1,    0.1,    0.2,    0.1,   -0.0,    0.1,   -0.0,   -0.0,    0.0,   -0.1,    0.0,   -0.0,    0.1,    0.1,    0.1,    0.0,    0.0,    0.0,    0.1,    0.0,    0.0,   -0.1,  999.0,    0.0,  999.0,   -0.5,  999.0,  999.0,  999.0,  999.0,  999.0,  999.0,  999.0
2013/04/27 18:40,  999.0,   -0.2,   -0.1,   -0.2,    0.4,    0.1,   -0.1,  999.0,  999.0,   -0.5,   -0.8,  999.0,  999.0,    0.4,  999.0,  999.0,  999.0,    1.0,   -0.2,   -0.0,   -0.3,   -0.2,   -0.3,   -0.5,   -0.2,   -0.3,   -0.4,    0.8,    0.6,   -0.0,    0.6,    0.4,   -0.0,   -0.2,   -0.0,    0.2,    0.1,    0.0,   -0.1,   -0.0,   -0.3,   -0.2,    0.0,    0.2,   -0.0,    0.1,    0.0,    0.1,   -0.2,   -0.1,   -0.1,    0.1,   -0.0,   -0.1,    0.0,    0.0,    0.2,   -0.0,    0.0,    0.0,    0.0,   -0.0,   -0.1,   -0.1,  999.0,    0.1,    0.1,    0.0,   -0.0,  999.0,   -0.1,  999.0,  999.0,   -0.0,  999.0,  999.0,  999.0,  999.0,  999.0,  999.0
2013/04/27 18:50,  999.0,   -0.0,   -0.1,   -0.1,   -0.1,    0.3,   -0.0,   -0.1,   -0.4,   -0.1,   -0.3,   -0.3,    0.1,    0.2,   -0.2,    0.0,   -0.1,   -0.3,    0.0,   -0.0,   -0.2,    0.2,    0.0,    0.2,    0.0,    0.4,    0.8,    0.6,    0.1,    0.1,    0.9,   -0.1,    0.6,    0.1,    0.3,    0.2,    0.0,   -0.0,    0.1,   -0.1,   -0.3,   -0.1,   -0.1,   -0.1,   -0.0,    0.0,   -0.2,    0.0,   -0.0,   -0.1,   -0.0,   -0.1,    0.2,    0.1,    0.2,   -0.0,    0.1,   -0.1,    0.1,   -0.1,   -0.0,   -0.0,   -0.0,   -0.2,   -0.1,    0.1,    0.1,   -0.1,   -0.1,    0.1,    0.3,  999.0,  999.0,  999.0,  999.0,  999.0,  999.0,  999.0,  999.0,  999.0
2013/04/27 19:00,  999.0,   -0.1,   -0.4,   -0.1,   -0.1,    0.1,   -0.1,    0.4,    0.5,    0.1,    0.0,   -0.6,    0.0,   -0.4,   -0.3,   -0.1,   -0.1,   -0.5,    0.2,   -0.2,    0.8,  999.0,  999.0,  999.0,  999.0,  999.0,  999.0,    3.9,    1.7,    2.2,    0.2,  999.0,    0.1,    0.2,    0.1,   -0.0,    0.0,    0.0,    0.2,    0.1,   -0.2,   -0.2,   -0.0,   -0.1,   -0.1,   -0.2,    0.1,    0.0,   -0.1,    0.0,   -0.1,   -0.0,   -0.1,    0.1,    0.1,    0.0,    0.1,    0.0,    0.2,   -0.0,   -0.1,    0.1,   -0.1,   -0.1,   -0.1,    0.0,   -0.1,    0.1,   -0.0,   -0.1,  999.0,  999.0,  999.0,  999.0,  999.0,  999.0,  999.0,  999.0,  999.0,  999.0
2013/04/27 19:10,  999.0,   -0.2,   -0.2,   -0.3,    0.0,    0.3,    0.2,   -0.0,    0.3,    0.8,    0.8,    0.3,    0.3,    0.4,   -0.5,   -0.0,   -0.2,   -0.1,   -0.1,   -0.4,  999.0,  999.0,  999.0,  999.0,  999.0,  999.0,  999.0,  999.0,   -2.3,   -0.9,    0.2,    0.0,   -0.0,   -0.0,   -0.3,  999.0,   -0.1,    0.1,   -0.2,  999.0,   -0.4,   -0.3,   -0.5,    0.1,    0.1,    0.0,    0.1,    0.2,   -0.1,   -0.4,   -0.1,   -0.1,    0.1,    0.1,    0.3,    0.1,    0.1,    0.1,   -0.1,   -0.3,   -0.3,    0.1,   -0.1,    0.0,    0.2,   -0.1,    0.0,    0.1,    0.1,  999.0,  999.0,    0.1,  999.0,  999.0,  999.0,  999.0,  999.0,  999.0,  999.0,  999.0
2013/04/27 19:20,  999.0,    0.0,   -0.2,    0.0,    0.4,    0.3,   -0.0,    1.1,    0.6,   -0.1,    0.7,    0.9,    1.0,   -0.2,    0.2,    1.1,  999.0,    1.2,    0.9,    0.5,    1.4,    1.2,  999.0,    0.8,   -0.6,    0.6,    0.0,    0.0,    0.2,    0.1,    0.2,   -0.0,    0.2,    0.2,   -0.1,   -0.3,   -0.5,   -0.2,    0.2,   -0.0,   -0.3,    0.0,   -0.0,   -0.0,   -0.1,   -0.0,    0.2,   -0.1,   -0.1,   -0.4,   -0.1,   -0.2,   -0.2,    0.0,    0.2,    0.0,    0.1,    0.1,    0.0,   -0.1,    0.2,    0.1,    0.2,   -0.0,   -0.0,   -0.2,   -0.2,   -0.1,    0.0,   -0.1,  999.0,  999.0,    0.3,  999.0,  999.0,  999.0,  999.0,  999.0,  999.0,  999.0
2013/04/27 19:30,  999.0,    0.5,   -0.1,   -0.3,   -0.1,    0.1,   -0.8,   -0.4,   -0.8,   -0.3,    0.1,   -0.1,    0.9,    1.6,    2.5,    2.1,   -0.2,    1.0,    0.3,    0.4,    5.9,    0.8,   -1.1,  999.0,   -0.8,   -2.8,   -0.8,    0.4,    0.6,   -0.4,    0.1,    0.0,    0.0,    0.1,    0.2,  999.0,    0.4,    0.2,   -0.0,    0.1,   -0.4,    0.1,    0.3,    0.1,   -0.1,   -0.0,   -0.1,    0.0,    0.0,   -0.1,    0.1,    0.1,   -0.1,   -0.0,   -0.2,   -0.1,    0.0,   -0.0,    0.1,    0.1,    0.0,   -0.3,    0.1,    0.2,    0.2,    0.1,   -0.1,   -0.2,  999.0,   -0.2,  999.0,  999.0,  999.0,  999.0,  999.0,  999.0,  999.0,  999.0,  999.0,  999.0
2013/04/27 19:40,  999.0,    0.0,   -0.1,    0.0,    0.1,   -0.1,    0.1,    0.0,    0.1,    1.4,    1.2,  999.0,   -0.1,  999.0,    0.0,    1.5,    0.4,    0.8,    0.2,  999.0,    0.9,  999.0,  999.0,  999.0,  999.0,  999.0,    2.4,    1.2,    0.4,    0.3,   -0.1,    0.0,   -0.0,    0.2,    0.1,   -0.1,    0.1,   -0.0,   -0.4,    0.0,   -0.3,   -0.3,   -0.3,   -0.1,    0.0,   -0.1,    0.1,    0.1,   -0.0,   -0.1,    0.2,    0.2,    0.1,    0.0,    0.2,   -0.0,    0.1,    0.2,    0.1,    0.1,   -0.1,    0.1,    0.2,   -0.0,   -0.4,   -0.0,    0.2,    0.0,   -0.1,  999.0,  999.0,  999.0,  999.0,  999.0,  999.0,  999.0,  999.0,  999.0,  999.0,  999.0
2013/04/27 19:50,  999.0,   -0.1,   -0.1,   -0.6,   -0.6,   -0.0,    0.0,   -0.0,    0.1,   -0.1,   -0.5,   -0.0,    0.0,    0.1,    0.1,   -0.1,    0.3,    0.3,    0.5,    0.7,    0.8,    0.8,    1.7,  999.0,    3.0,    4.4,    2.7,   -0.6,   -1.0,    1.9,    1.4,   -0.1,   -0.2,   -0.1,   -0.1,    0.2,    0.2,   -0.0,   -0.1,   -0.1,   -0.3,   -0.1,   -0.1,   -0.1,   -0.0,   -0.0,    0.3,   -0.0,    0.1,    0.3,    0.1,    0.2,   -0.0,   -0.2,    0.1,    0.1,    0.1,   -0.1,   -0.3,   -0.1,    0.1,   -0.1,   -0.1,    0.2,    0.0,    0.0,    0.1,    0.0,    0.1,  999.0,  999.0,  999.0,  999.0,  999.0,  999.0,  999.0,  999.0,  999.0,  999.0,  999.0
2013/04/27 20:00,  999.0,    0.0,    0.4,   -0.7,  999.0,  999.0,  999.0,   -0.4,   -1.3,   -0.7,   -0.2,    0.5,    0.1,    0.2,    0.8,    0.5,    0.7,    0.2,    0.2,    1.3,   -0.3,    0.6,    0.1,   -1.5,   -1.3,   -0.1,    0.4,    0.1,    0.5,   -0.2,    0.0,   -0.0,   -0.5,   -0.4,   -0.0,   -0.1,    0.0,   -0.1,   -0.1,   -0.1,   -0.3,   -0.2,   -0.1,    0.1,   -0.1,    0.0,   -0.0,   -0.0,   -0.1,    0.0,    0.0,    0.2,    0.2,    0.3,    0.1,    0.2,    0.1,   -0.1,    0.2,    0.3,    0.0,   -0.1,    0.3,   -0.0,   -0.2,    0.1,    0.1,   -0.0,  999.0,  999.0,  999.0,  999.0,  999.0,  999.0,  999.0,  999.0,  999.0,  999.0,  999.0,  999.0
2013/04/27 20:10,  999.0,  999.0,    0.3,    0.0,   -0.0,   -0.1,   -0.0,   -0.1,    0.1,    0.1,   -0.0,    0.2,    0.1,    0.3,    0.3,    0.3,    0.6,    0.9,    0.8,    0.4,    0.9,    1.1,    2.5,    4.5,    1.4,    0.3,    1.2,    1.1,    0.2,   -0.1,   -0.1,   -0.1,   -0.0,    0.0,    0.2,   -0.5,   -0.3,    0.1,    0.1,    0.2,   -0.1,   -0.2,    0.2,    0.0,    0.2,   -0.2,   -0.0,   -0.1,    0.2,    0.2,    0.1,   -0.1,   -0.0,    0.2,   -0.0,    0.2,    0.0,   -0.1,   -0.1,   -0.1,   -0.2,   -0.1,    0.2,   -0.1,    0.1,   -0.0,    0.0,   -0.0,    0.2,    0.4,  999.0,  999.0,  999.0,  999.0,  999.0,  999.0,  999.0,  999.0,  999.0,  999.0
2013/04/27 20:20,  999.0,    0.1,   -0.4,   -0.3,   -0.1,    0.3,    0.1,   -0.0,   -0.2,    0.0,    0.0,    0.2,    0.2,    0.2,    0.0,   -0.0,    0.1,    0.3,    0.3,    0.5,  999.0,  999.0,  999.0,  999.0,   -0.4,   -0.4,   -0.2,   -0.4,   -0.2,   -0.1,   -0.2,    0.1,    0.0,    0.0,   -0.2,    0.0,    0.1,    0.3,    0.2,   -0.1,   -0.2,   -0.0,    0.1,    0.0,   -0.0,   -0.1,   -0.0,   -0.2,   -0.1,    0.0,   -0.1,   -0.2,    0.2,   -0.1,    0.1,   -0.1,    0.2,    0.1,    0.2,    0.0,   -0.2,   -0.0,    0.0,    0.1,    0.0,   -0.0,   -0.1,    0.1,    0.4,  999.0,  999.0,  999.0,  999.0,  999.0,  999.0,  999.0,  999.0,  999.0,  999.0,  999.0
2013/04/27 20:30,  999.0,    0.2,   -0.1,    0.1,    0.3,    0.1,    0.1,    0.1,    0.2,    0.1,    0.2,    0.2,    0.5,    0.7,    0.7,    1.5,    0.6,    1.0,  999.0,  999.0,  999.0,  999.0,  999.0,  999.0,   -0.4,    0.1,   -0.0,    0.1,   -0.0,    0.0,    0.1,    0.0,   -0.1,   -0.2,   -0.3,    0.0,    0.2,    0.1,   -0.1,   -0.1,   -0.3,   -0.1,    0.2,    0.2,    0.0,   -0.0,    0.0,   -0.1,   -0.3,    0.0,   -0.1,   -0.1,   -0.0,    0.1,    0.0,   -0.2,   -0.1,   -0.1,   -0.1,    0.0,   -0.2,   -0.3,   -0.3,   -0.2,  999.0,    0.1,   -0.1,   -0.1,   -0.2,   -0.0,  999.0,  999.0,  999.0,  999.0,  999.0,  999.0,  999.0,  999.0,  999.0,  999.0
2013/04/27 20:40,  999.0,   -0.2,   -0.3,   -0.2,   -0.3,   -0.3,   -0.1,    0.0,    0.0,    0.0,    0.0,   -0.0,    0.1,    0.2,    0.2,    0.3,    0.4,    0.1,    0.2,   -0.0,    0.3,  999.0,  999.0,    0.4,   -0.1,    0.0,    0.1,   -0.2,    0.0,    0.1,   -0.0,    0.1,    0.1,    0.1,    0.1,   -0.0,    0.2,    0.3,    0.1,    0.1,   -0.1,   -0.1,   -0.2,   -0.0,    0.1,   -0.1,   -0.0,   -0.1,   -0.1,    0.1,    0.1,    0.0,    0.2,   -0.1,   -0.1,    0.1,    0.2,    0.2,    0.1,    0.1,   -0.1,   -0.1,   -0.0,  999.0,  999.0,   -0.1,   -0.7,   -0.2,  999.0,  999.0,  999.0,  999.0,  999.0,  999.0,  999.0,  999.0,  999.0,  999.0,  999.0,  999.0
2013/04/27 20:50,  999.0,   -0.2,    0.3,   -0.1,   -0.2,   -0.3,   -0.3,   -0.1,    0.2,   -0.1,    0.1,    0.1,    0.2,    0.2,    0.1,    0.5,    0.2,    0.2,    0.5,    0.2,   -0.1,   -1.1,   -0.5,   -0.5,    0.1,   -0.0,   -0.0,    0.1,    0.1,    0.2,    0.0,    0.1,    0.1,    0.0,   -0.1,   -0.0,    0.2,    0.2,    0.1,   -0.0,   -0.4,   -0.1,    0.0,    0.1,    0.1,   -0.2,   -0.2,    0.3,    0.4,   -0.1,    0.2,    0.2,    0.1,   -0.0,   -0.1,    0.0,    0.2,    0.1,    0.0,   -0.1,   -0.1,   -0.0,   -0.2,    0.3,    0.3,    0.2,    0.3,    0.2,   -0.1,  999.0,  999.0,  999.0,  999.0,  999.0,  999.0,  999.0,  999.0,  999.0,  999.0,  999.0
2013/04/27 21:00,  999.0,   -0.1,    0.2,   -0.5,    0.1,   -0.1,   -0.2,  999.0,   -0.1,    0.1,    0.0,    0.1,    0.2,    0.2,    0.2,    0.3,    0.4,    0.7,   -0.1,   -0.6,  999.0,  999.0,  999.0,  999.0,  999.0,   -0.1,   -0.3,   -0.3,   -0.1,    0.0,   -0.3,   -0.0,   -0.2,  999.0,   -0.4,  999.0,   -0.2,   -0.0,    0.0,   -0.1,   -0.0,   -0.1,   -0.3,   -0.0,   -0.2,    0.1,    0.1,    0.3,    0.0,    0.1,  999.0,    0.3,    0.1,    0.4,   -0.1,   -0.1,   -0.2,   -0.1,   -0.1,    0.0,    0.1,   -0.1,   -0.3,   -0.0,    0.1,   -0.3,  999.0,   -0.5,   -0.2,  999.0,  999.0,  999.0,  999.0,  999.0,  999.0,  999.0,  999.0,  999.0,  999.0,  999.0
2013/04/27 21:10,  999.0,   -0.0,   -0.5,   -0.0,   -0.4,   -0.1,   -0.1,    0.0,    0.0,   -0.5,   -0.3,    0.1,    0.1,    0.2,   -0.1,    0.2,    0.2,    0.4,    1.1,    2.5,    0.5,  999.0,  999.0,   -2.0,   -3.0,    0.1,    0.2,    0.1,    0.3,    0.2,    0.1,    0.1,    0.0,    0.2,    0.1,    0.1,    0.2,  999.0,   -0.1,   -0.2,    0.1,  999.0,   -0.2,    0.4,   -0.1,   -0.0,    0.2,    0.2,   -0.0,   -0.2,   -0.3,   -0.1,   -0.1,    0.2,    0.1,    0.1,   -0.2,   -0.0,    0.3,   -0.1,    0.1,   -0.2,   -0.2,   -0.3,    0.1,    0.0,    0.1,  999.0,  999.0,  999.0,  999.0,  999.0,  999.0,  999.0,  999.0,  999.0,  999.0,  999.0,  999.0,  999.0
2013/04/27 21:20,  999.0,    0.2,    0.2,    0.1,    0.3,    0.1,   -0.3,    0.3,    0.0,   -0.1,    0.1,    0.1,    0.1,    0.1,    0.1,    0.5,    0.4,    0.6,    0.4,    0.9,    1.5,  999.0,    0.0,  999.0,  999.0,  999.0,    0.0,    0.2,   -0.0,    0.2,    0.0,   -0.1,   -0.2,    0.4,    0.0,   -0.3,   -0.0,   -0.4,   -0.1,   -0.1,   -0.3,   -0.3,   -0.0,  999.0,   -0.0,    0.1,    0.2,    0.3,    0.1,    0.3,  999.0,   -0.1,    0.2,   -0.2,   -0.0,   -0.0,   -0.3,   -0.1,    0.2,   -0.1,   -0.1,    0.1,   -0.2,   -0.2,   -0.2,  999.0,  999.0,  999.0,  999.0,  999.0,  999.0,  999.0,  999.0,  999.0,  999.0,  999.0,  999.0,  999.0,  999.0,  999.0
2013/04/27 21:30,  999.0,   -0.3,    0.4,    0.0,   -0.2,   -0.0,   -0.0,    0.2,    0.2,    0.0,   -0.0,    0.1,    0.6,    0.9,    1.0,    1.1,    1.4,    1.8,    2.5,    1.8,    1.3,  999.0,  999.0,  999.0,  999.0,    4.0,    3.0,    2.6,    2.0,    1.3,    0.7,   -0.1,   -0.0,   -0.1,    0.4,    0.1,    0.1,   -0.0,   -0.1,    0.1,    0.2,   -0.2,   -0.2,    0.1,  999.0,  999.0,   -0.3,   -0.1,  999.0,  999.0,    0.0,    0.1,    0.0,    0.6,   -0.0,    0.1,    0.1,  999.0,  999.0,    0.1,  999.0,    0.3,  999.0,    0.1,    0.4,    0.2,  999.0,    0.1,    0.1,  999.0,  999.0,  999.0,  999.0,  999.0,  999.0,  999.0,  999.0,  999.0,  999.0,  999.0
2013/04/27 21:40,  999.0,   -0.0,   -0.3,   -0.1,    0.0,    0.2,    0.3,    0.2,   -0.0,    0.2,    0.3,    0.6,    1.1,    1.6,    2.0,    1.7,    2.8,    3.3,    3.7,    4.0,  999.0,    2.9,  999.0,  999.0,  999.0,   -0.3,   -0.3,   -0.3,   -0.1,   -0.0,   -0.1,   -0.0,    0.0,    0.1,  999.0,   -0.2,   -0.1,    0.2,    0.5,    0.2,   -0.4,    0.0,    0.2,   -0.1,   -0.4,   -0.3,   -0.2,    0.1,  999.0,  999.0,    0.0,    0.1,  999.0,    0.4,   -0.4,  999.0,    0.1,  999.0,  999.0,   -0.1,  999.0,  999.0,   -0.3,    0.2,  999.0,    0.0,   -0.3,   -0.1,   -0.2,  999.0,  999.0,  999.0,  999.0,  999.0,  999.0,  999.0,  999.0,  999.0,  999.0,  999.0
2013/04/27 21:50,  999.0,    1.1,    0.4,    0.5,    0.4,    0.2,    0.1,    0.3,    0.4,    0.3,    0.4,    0.8,    1.2,    1.4,    2.1,    2.1,    1.7,    2.9,    3.2,  999.0,  999.0,  999.0,  999.0,  999.0,  999.0,    1.8,    1.2,    0.3,    0.6,    0.1,    0.1,   -0.1,   -0.2,   -0.1,   -0.2,  999.0,   -0.1,   -0.0,    0.0,   -0.2,   -0.8,   -0.6,   -0.1,    0.2,   -0.0,   -0.0,    0.1,   -0.4,  999.0,    0.1,   -0.3,   -0.2,    0.6,    0.1,    0.1,  999.0,   -0.0,   -0.1,   -0.1,   -0.2,  999.0,  999.0,  999.0,   -0.1,  999.0,  999.0,  999.0,  999.0,  999.0,  999.0,  999.0,  999.0,  999.0,  999.0,  999.0,  999.0,  999.0,  999.0,  999.0,  999.0
2013/04/27 22:00,  999.0,   -0.4,   -0.6,   -0.6,   -0.3,   -0.2,   -0.1,    0.4,    1.1,    1.1,  999.0,    2.7,   -0.3,    4.0,    5.3,    6.2,  999.0,  999.0,  999.0,  999.0,  999.0,  999.0,  999.0,  999.0,   13.0,   10.3,  999.0,  999.0,    7.5,    4.9,    2.8,    0.3,   -0.2,    0.1,    0.2,   -0.3,  999.0,    0.1,   -0.2,    0.0,   -0.3,   -0.5,  999.0,  999.0,    0.0,   -0.2,  999.0,   -0.3,    0.2,   -0.0,   -0.2,   -0.5,   -0.2,    0.2,    0.2,    0.2,    0.0,   -0.2,   -0.3,    0.2,   -0.5,   -0.3,    0.1,    0.2,   -0.2,  999.0,  999.0,  999.0,    0.4,  999.0,  999.0,  999.0,  999.0,  999.0,  999.0,  999.0,  999.0,  999.0,  999.0,  999.0
2013/04/27 22:10,  999.0,   -0.0,    0.2,    0.0,    0.1,   -0.4,   -0.5,    0.1,    0.4,    1.2,    0.2,    1.2,    3.2,    1.8,  999.0,  999.0,  999.0,  999.0,  999.0,  999.0,  999.0,   13.8,   13.0,  999.0,   14.4,   13.0,   10.2,  999.0,    5.7,    4.7,    2.6,    0.2,   -0.1,    0.0,    0.0,   -0.2,    0.1,    0.2,   -0.1,    0.1,   -0.4,   -0.6,   -0.3,    0.1,   -0.2,    0.1,   -0.2,    0.2,    0.3,  999.0,    0.2,    0.3,    0.1,   -0.2,   -0.0,    0.3,    0.0,   -0.0,    0.2,   -0.2,   -0.0,    0.1,    0.2,    0.3,   -0.4,   -0.4,    0.3,  999.0,   -0.1,  999.0,  999.0,  999.0,  999.0,  999.0,  999.0,  999.0,  999.0,  999.0,  999.0,  999.0
2013/04/27 22:20,  999.0,    0.3,   -0.0,  999.0,   -0.0,  999.0,  999.0,    0.4,    0.1,    0.5,    1.0,    0.8,    0.9,    1.3,    3.4,    4.1,    3.8,    3.1,    3.5,    3.4,    5.3,    6.8,    6.9,    5.8,    6.9,    6.6,    4.5,    8.3,   -0.0,   -0.1,    0.1,    0.5,  999.0,    0.3,    0.0,   -0.0,  999.0,    0.1,    0.4,    0.1,    0.1,   -0.2,  999.0,    0.1,    0.4,    0.2,    0.1,   -0.2,   -0.2,   -0.0,    0.1,    0.0,    0.3,    0.1,    0.1,   -0.1,   -0.5,   -0.1,   -0.1,    0.2,   -0.2,   -0.1,   -0.1,   -0.0,    0.2,    0.2,  999.0,    0.1,   -0.2,  999.0,  999.0,    0.1,   -0.9,  999.0,  999.0,  999.0,  999.0,  999.0,  999.0,  999.0
2013/04/27 22:30,  999.0,    0.1,    0.1,    2.2,    2.3,    2.2,    0.8,    0.8,    0.4,    1.2,    0.3,    0.8,    1.1,    2.2,    2.6,  999.0,    2.1,    1.3,    2.6,    2.9,    4.2,    5.1,    1.8,    0.6,    0.3,    0.4,   -0.3,   -0.1,   -0.0,   -0.4,   -0.0,    0.1,   -0.0,   -0.1,    0.1,   -0.4,   -0.1,    0.1,   -0.0,    0.1,   -0.3,   -0.1,    0.0,   -0.3,   -0.1,    0.1,   -0.1,   -0.5,   -0.3,   -0.4,   -0.0,    0.1,    0.2,    0.2,   -0.0,   -0.2,    0.1,    0.2,   -0.1,   -0.2,   -0.3,   -0.1,   -0.2,    0.0,   -0.3,   -0.0,   -0.3,   -0.1,   -0.3,   -0.3,   -0.1,  999.0,    0.2,   -0.1,  999.0,  999.0,  999.0,  999.0,  999.0,  999.0
2013/04/27 22:40,  999.0,    0.7,    1.0,    1.7,    2.3,    2.1,    3.6,    2.1,    4.6,    3.2,    4.6,    0.1,    0.4,    2.1,    1.8,    2.0,    1.9,    3.0,    6.7,    4.1,    4.6,    4.2,    3.4,    6.0,    2.1,    1.3,   -0.5,  999.0,    1.3,   -0.0,    0.1,    0.3,    0.0,  999.0,   -0.2,    0.2,    0.3,   -0.0,   -0.2,   -0.2,   -0.3,   -0.5,    0.4,    0.0,    0.0,    0.1,    0.0,    0.2,    0.0,   -0.0,    0.1,   -0.0,    0.1,   -0.1,    0.0,    0.2,    0.1,   -0.2,   -0.1,    0.0,    0.1,    0.2,    0.1,    0.1,  999.0,    0.0,  999.0,    0.2,   -0.1,  999.0,  999.0,   -0.1,    0.1,    0.2,  999.0,  999.0,  999.0,  999.0,  999.0,  999.0
2013/04/27 22:50,  999.0,   -0.1,    0.2,    0.5,    0.4,    0.5,    0.8,    0.9,    2.7,    2.3,    2.0,    1.6,    0.4,    2.9,    4.1,    3.2,    2.1,    2.3,  999.0,  999.0,  999.0,  999.0,  999.0,  999.0,    7.9,   10.2,    6.0,    1.3,    0.1,   -0.2,   -0.4,    0.2,  999.0,    0.1,    0.2,  999.0,   -0.0,   -0.0,    0.2,    0.1,   -0.5,   -0.4,   -0.2,    0.1,    0.2,    0.1,   -0.0,   -0.3,    0.2,   -0.2,    0.0,   -0.1,   -0.1,   -0.1,    0.0,    0.1,   -0.0,    0.1,    0.1,   -0.0,   -0.0,    0.0,   -0.1,    0.1,    0.2,   -0.1,  999.0,    0.0,  999.0,  999.0,  999.0,  999.0,  999.0,  999.0,  999.0,  999.0,  999.0,  999.0,  999.0,  999.0
2013/04/27 23:00,  999.0,   -0.2,   -0.5,   -0.7,   -0.2,    0.3,    0.3,    0.2,    0.7,    1.1,    0.5,    0.9,    0.9,    1.5,    1.4,    0.9,    1.8,    1.2,    2.2,  999.0,  999.0,  999.0,    6.9,  999.0,  999.0,    5.5,    5.6,    3.2,    2.0,    3.2,    0.4,   -0.0,   -0.2,    0.1,    0.1,    0.3,    0.0,  999.0,   -0.2,    0.2,  999.0,   -0.3,   -0.1,   -0.3,  999.0,    0.2,    0.4,   -0.0,    0.3,   -0.1,    0.1,    0.1,   -0.3,   -0.2,    0.2,    0.1,   -0.2,    0.0,    0.0,    0.1,    0.0,    0.0,    0.1,   -0.2,    0.0,   -0.1,    0.3,    0.0,    0.1,  999.0,  999.0,  999.0,  999.0,  999.0,  999.0,  999.0,  999.0,  999.0,  999.0,  999.0
2013/04/27 23:10,  999.0,   -0.1,   -0.2,   -0.1,   -0.0,   -0.1,    0.1,    0.1,   -0.3,    0.4,    1.6,    1.7,    2.7,    2.2,    2.9,    3.0,  999.0,  999.0,   13.0,   14.4,  999.0,   24.6,   19.5,   16.1,  999.0,  999.0,  999.0,    8.4,    6.9,    6.5,    1.3,    1.5,  999.0,   -0.1,   -0.1,    0.0,  999.0,  999.0,  999.0,  999.0,  999.0,   -0.7,   -0.1,   -0.0,   -0.4,  999.0,   -0.7,  999.0,  999.0,  999.0,  999.0,  999.0,  999.0,  999.0,  999.0,    0.0,   -0.0,   -0.1,    0.0,   -0.1,   -0.4,    0.3,    0.3,  999.0,  999.0,   -0.4,   -0.1,   -0.0,  999.0,  999.0,  999.0,  999.0,  999.0,  999.0,  999.0,  999.0,  999.0,  999.0,  999.0,  999.0
2013/04/27 23:20,  999.0,   -0.4,   -0.4,   -0.5,  999.0,    0.5,    0.0,    0.6,    0.9,    0.7,    1.3,  999.0,  999.0,  999.0,    8.5,   10.4,   14.5,   18.1,   20.1,   21.0,   22.5,   24.0,   23.5,   22.0,   22.6,   19.5,   20.4,  999.0,    5.7,    2.5,  999.0,    2.1,    1.2,    1.6,    0.5,  999.0,  999.0,  999.0,   -0.3,  999.0,   -0.3,   -0.5,  999.0,   -0.0,   -0.0,    0.1,    0.2,    0.2,    0.1,  999.0,  999.0,  999.0,  999.0,   -0.1,  999.0,    0.3,  999.0,   -0.1,    0.2,   -0.0,   -0.0,   -0.2,   -0.2,  999.0,  999.0,    0.1,  999.0,   -0.0,    0.1,  999.0,  999.0,    0.1,  999.0,  999.0,  999.0,  999.0,  999.0,  999.0,  999.0,  999.0
2013/04/27 23:30,  999.0,   -0.5,   -0.1,   -0.4,   -0.6,   -0.5,    0.4,    0.3,    0.9,    0.5,   -0.2,   -0.4,    0.7,  999.0,  999.0,    9.5,  999.0,  999.0,  999.0,  999.0,   12.4,   13.6,   13.0,  999.0,    7.7,    6.5,    6.0,    3.2,    1.3,   -0.2,  999.0,   -0.1,    0.2,   -0.0,  999.0,  999.0,  999.0,  999.0,   -0.3,    0.1,  999.0,   -0.3,    0.1,    0.2,    0.3,    0.3,  999.0,  999.0,    0.1,   -0.1,    0.0,  999.0,   -0.5,    0.1,   -0.2,    0.1,    0.6,    0.1,    0.1,    0.1,    0.4,   -0.0,  999.0,   -0.0,    0.1,  999.0,   -0.2,    0.0,    0.2,  999.0,  999.0,  999.0,  999.0,  999.0,  999.0,  999.0,  999.0,  999.0,  999.0,  999.0
2013/04/27 23:40,  999.0,   -0.1,   -0.6,   -0.2,   -0.7,    0.2,    0.5,    1.0,    0.2,    1.0,    4.1,    4.8,    4.5,    7.5,  999.0,    3.4,    4.1,    3.8,    5.2,    5.3,    8.5,    9.2,    8.9,    9.2,    9.7,   10.0,    7.1,    5.9,    3.4,    0.2,    0.9,    0.7,   -0.3,  999.0,    0.1,  999.0,    0.2,    0.2,    0.0,    0.2,    0.1,   -0.2,  999.0,   -0.0,   -0.1,   -0.2,    0.1,    0.1,   -0.0,  999.0,   -0.3,   -0.1,    0.0,   -0.1,   -0.1,    0.0,   -0.1,    0.3,    0.4,   -0.1,    0.1,  999.0,   -0.2,    0.0,    0.0,    0.2,  999.0,    0.3,    0.2,  999.0,  999.0,  999.0,  999.0,  999.0,  999.0,  999.0,  999.0,  999.0,  999.0,  999.0
2013/04/27 23:50,  999.0,    0.3,   -0.4,   -0.4,    0.3,    0.2,    0.8,    0.5,    2.0,    2.9,    3.6,    2.0,    1.1,    5.8,    2.3,    3.3,    6.8,    8.0,    7.5,    6.9,    7.3,    7.8,    9.0,   11.3,    6.3,    6.4,    6.5,    3.6,    1.0,    2.3,    0.0,    0.1,    0.3,  999.0,   -0.0,    0.2,    0.4,    0.0,   -0.1,   -0.1,   -0.4,  999.0,   -0.0,    0.2,    0.3,  999.0,   -0.1,  999.0,    0.0,   -0.1,    0.1,  999.0,    0.1,   -0.2,   -0.2,    0.3,    0.0,    0.3,   -0.2,   -0.2,   -0.1,  999.0,  999.0,    0.1,    0.0,    0.0,  999.0,  999.0,  999.0,  999.0,  999.0,  999.0,  999.0,  999.0,  999.0,  999.0,  999.0,  999.0,  999.0,  999.0
